| time (UTC) | temp C | wind direction | speed KPH | gust KPH | rain 1hr cm | rain 24hr cm | rain mn cm | humidity % | barometer mb |
| 20260509034530 | 24 | 10 | 4.8 | 9.7 | 0.00 | 0.00 | 0.00 | 44 | 1021.7 |
| 20260509034428 | 24 | 96 | 4.8 | 9.7 | 0.00 | 0.00 | 0.00 | 43 | 1021.6 |
| 20260509034322 | 24 | 63 | 4.8 | 14.5 | 0.00 | 0.00 | 0.00 | 46 | 1021.6 |
| 20260509034219 | 23 | 78 | 4.8 | 14.5 | 0.00 | 0.00 | 0.00 | 46 | 1021.7 |
| 20260509034117 | 23 | 0 | 4.8 | 14.5 | 0.00 | 0.00 | 0.00 | 46 | 1021.6 |
| 20260509034017 | 23 | 17 | 4.8 | 14.5 | 0.00 | 0.00 | 0.00 | 46 | 1021.6 |
| 20260509033919 | 23 | 38 | 4.8 | 14.5 | 0.00 | 0.00 | 0.00 | 46 | 1021.7 |
| 20260509033814 | 23 | 51 | 4.8 | 14.5 | 0.00 | 0.00 | 0.00 | 46 | 1021.7 |
| 20260509033714 | 23 | 15 | 4.8 | 14.5 | 0.00 | 0.00 | 0.00 | 46 | 1021.7 |
| 20260509033610 | 23 | 9 | 4.8 | 14.5 | 0.00 | 0.00 | 0.00 | 46 | 1021.7 |
| 20260509033512 | 23 | 94 | 4.8 | 14.5 | 0.00 | 0.00 | 0.00 | 45 | 1021.7 |
| 20260509033412 | 23 | 0 | 3.2 | 12.9 | 0.00 | 0.00 | 0.00 | 47 | 1021.7 |
| 20260509033300 | 24 | 295 | 3.2 | 12.9 | 0.00 | 0.00 | 0.00 | 45 | 1021.7 |
| 20260509033159 | 24 | 67 | 3.2 | 12.9 | 0.00 | 0.00 | 0.00 | 46 | 1021.7 |
| 20260509033058 | 24 | 21 | 3.2 | 12.9 | 0.00 | 0.00 | 0.00 | 47 | 1021.7 |
| 20260509032959 | 24 | 117 | 4.8 | 16.1 | 0.00 | 0.00 | 0.00 | 46 | 1021.8 |
| 20260509032855 | 24 | 130 | 4.8 | 16.1 | 0.00 | 0.00 | 0.00 | 48 | 1021.8 |
| 20260509032752 | 24 | 68 | 3.2 | 16.1 | 0.00 | 0.00 | 0.00 | 45 | 1021.8 |
| 20260509032652 | 24 | 34 | 3.2 | 16.1 | 0.00 | 0.00 | 0.00 | 47 | 1021.7 |
| 20260509032546 | 24 | 44 | 3.2 | 16.1 | 0.00 | 0.00 | 0.00 | 46 | 1021.8 |
| 20260509032446 | 24 | 317 | 4.8 | 16.1 | 0.00 | 0.00 | 0.00 | 47 | 1021.8 |
| 20260509032350 | 24 | 24 | 4.8 | 16.1 | 0.00 | 0.00 | 0.00 | 46 | 1021.7 |
| 20260509032245 | 24 | 61 | 4.8 | 16.1 | 0.00 | 0.00 | 0.00 | 50 | 1021.7 |
| 20260509032144 | 24 | 146 | 4.8 | 16.1 | 0.00 | 0.00 | 0.00 | 46 | 1021.6 |
| 20260509032034 | 24 | 164 | 3.2 | 11.3 | 0.00 | 0.00 | 0.00 | 47 | 1021.7 |
| 20260509031929 | 24 | 61 | 3.2 | 11.3 | 0.00 | 0.00 | 0.00 | 50 | 1021.7 |
| 20260509031830 | 24 | 140 | 3.2 | 11.3 | 0.00 | 0.00 | 0.00 | 48 | 1021.7 |
| 20260509031729 | 24 | 60 | 3.2 | 9.7 | 0.00 | 0.00 | 0.00 | 48 | 1021.6 |
| 20260509031626 | 23 | 98 | 1.6 | 9.7 | 0.00 | 0.00 | 0.00 | 48 | 1021.7 |
| 20260509031526 | 23 | 82 | 1.6 | 9.7 | 0.00 | 0.00 | 0.00 | 48 | 1021.6 |
| 20260509031426 | 23 | 40 | 1.6 | 9.7 | 0.00 | 0.00 | 0.00 | 49 | 1021.7 |
| 20260509031331 | 23 | 30 | 1.6 | 9.7 | 0.00 | 0.00 | 0.00 | 49 | 1021.7 |
| 20260509031225 | 23 | 29 | 1.6 | 9.7 | 0.00 | 0.00 | 0.00 | 50 | 1021.7 |
| 20260509031119 | 23 | 19 | 1.6 | 6.4 | 0.00 | 0.00 | 0.00 | 51 | 1021.7 |
| 20260509031019 | 23 | 80 | 1.6 | 6.4 | 0.00 | 0.00 | 0.00 | 50 | 1021.8 |
| 20260509030919 | 23 | 69 | 1.6 | 8.0 | 0.00 | 0.00 | 0.00 | 52 | 1021.8 |
| 20260509030819 | 22 | 69 | 1.6 | 8.0 | 0.00 | 0.00 | 0.00 | 51 | 1021.8 |
| 20260509030718 | 22 | 69 | 1.6 | 8.0 | 0.00 | 0.00 | 0.00 | 52 | 1021.7 |
| 20260509030608 | 22 | 69 | 1.6 | 8.0 | 0.00 | 0.00 | 0.00 | 53 | 1021.8 |
| 20260509030503 | 22 | 51 | 1.6 | 8.0 | 0.00 | 0.00 | 0.00 | 50 | 1021.8 |
| 20260509030402 | 22 | 63 | 1.6 | 8.0 | 0.00 | 0.00 | 0.00 | 50 | 1021.8 |
| 20260509030307 | 22 | 121 | 3.2 | 9.7 | 0.00 | 0.00 | 0.00 | 50 | 1021.9 |
| 20260509030154 | 23 | 154 | 3.2 | 9.7 | 0.00 | 0.00 | 0.00 | 51 | 1021.9 |
| 20260509030045 | 23 | 340 | 3.2 | 9.7 | 0.00 | 0.00 | 0.00 | 49 | 1021.9 |
| 20260509025940 | 23 | 323 | 3.2 | 9.7 | 0.00 | 0.00 | 0.00 | 49 | 1021.9 |
| 20260509025838 | 23 | 94 | 3.2 | 9.7 | 0.00 | 0.00 | 0.00 | 51 | 1021.9 |
| 20260509025740 | 23 | 71 | 3.2 | 9.7 | 0.00 | 0.00 | 0.00 | 48 | 1021.9 |
| 20260509025631 | 24 | 72 | 3.2 | 9.7 | 0.00 | 0.00 | 0.00 | 47 | 1021.9 |
| 20260509025531 | 24 | 38 | 3.2 | 9.7 | 0.00 | 0.00 | 0.00 | 49 | 1021.9 |
| 20260509025429 | 23 | 135 | 3.2 | 9.7 | 0.00 | 0.00 | 0.00 | 48 | 1021.9 |
| 20260509025320 | 23 | 65 | 3.2 | 9.7 | 0.00 | 0.00 | 0.00 | 49 | 1021.9 |
| 20260509025222 | 23 | 96 | 3.2 | 8.0 | 0.00 | 0.00 | 0.00 | 47 | 1022.0 |
| 20260509025119 | 23 | 36 | 1.6 | 6.4 | 0.00 | 0.00 | 0.00 | 47 | 1022.0 |
| 20260509025012 | 23 | 29 | 1.6 | 6.4 | 0.00 | 0.00 | 0.00 | 48 | 1022.0 |
| 20260509024910 | 23 | 126 | 1.6 | 6.4 | 0.00 | 0.00 | 0.00 | 48 | 1022.1 |
| 20260509024812 | 23 | 126 | 1.6 | 6.4 | 0.00 | 0.00 | 0.00 | 50 | 1022.0 |
| 20260509024710 | 22 | 72 | 1.6 | 6.4 | 0.00 | 0.00 | 0.00 | 51 | 1022.1 |
| 20260509024552 | 22 | 117 | 1.6 | 6.4 | 0.00 | 0.00 | 0.00 | 50 | 1022.1 |
| 20260509024448 | 22 | 138 | 1.6 | 4.8 | 0.00 | 0.00 | 0.00 | 51 | 1022.1 |
| 20260509024347 | 22 | 164 | 1.6 | 4.8 | 0.00 | 0.00 | 0.00 | 51 | 1022.2 |
| 20260509024247 | 22 | 204 | 1.6 | 4.8 | 0.00 | 0.00 | 0.00 | 51 | 1022.1 |
| 20260509024146 | 22 | 101 | 1.6 | 4.8 | 0.00 | 0.00 | 0.00 | 50 | 1022.1 |
| 20260509024028 | 22 | 86 | 1.6 | 6.4 | 0.00 | 0.00 | 0.00 | 50 | 1022.1 |
| 20260509023929 | 22 | 143 | 1.6 | 6.4 | 0.00 | 0.00 | 0.00 | 51 | 1022.1 |
| 20260509023830 | 23 | 196 | 3.2 | 6.4 | 0.00 | 0.00 | 0.00 | 51 | 1022.1 |
| 20260509023721 | 23 | 198 | 3.2 | 11.3 | 0.00 | 0.00 | 0.00 | 53 | 1022.2 |
| 20260509023616 | 22 | 345 | 3.2 | 11.3 | 0.00 | 0.00 | 0.00 | 52 | 1022.2 |
| 20260509023518 | 23 | 345 | 3.2 | 11.3 | 0.00 | 0.00 | 0.00 | 50 | 1022.1 |
| 20260509023414 | 23 | 345 | 3.2 | 11.3 | 0.00 | 0.00 | 0.00 | 49 | 1022.1 |
| 20260509023312 | 23 | 98 | 3.2 | 11.3 | 0.00 | 0.00 | 0.00 | 49 | 1022.2 |
| 20260509023212 | 23 | 128 | 3.2 | 11.3 | 0.00 | 0.00 | 0.00 | 49 | 1022.2 |
| 20260509023102 | 23 | 140 | 3.2 | 11.3 | 0.00 | 0.00 | 0.00 | 48 | 1022.2 |
| 20260509022952 | 23 | 165 | 3.2 | 11.3 | 0.00 | 0.00 | 0.00 | 49 | 1022.2 |
| 20260509022841 | 23 | 133 | 3.2 | 11.3 | 0.00 | 0.00 | 0.00 | 49 | 1022.3 |
| 20260509022732 | 23 | 174 | 3.2 | 6.4 | 0.00 | 0.00 | 0.00 | 49 | 1022.2 |
| 20260509022520 | 23 | 153 | 3.2 | 8.0 | 0.00 | 0.00 | 0.00 | 49 | 1022.2 |
| 20260509022418 | 23 | 99 | 3.2 | 8.0 | 0.00 | 0.00 | 0.00 | 48 | 1022.3 |
| 20260509022328 | 23 | 118 | 3.2 | 8.0 | 0.00 | 0.00 | 0.00 | 48 | 1022.2 |
| 20260509022207 | 24 | 113 | 3.2 | 8.0 | 0.00 | 0.00 | 0.00 | 46 | 1022.3 |
| 20260509022102 | 25 | 38 | 3.2 | 8.0 | 0.00 | 0.00 | 0.00 | 46 | 1022.3 |
| 20260509022004 | 25 | 209 | 3.2 | 11.3 | 0.00 | 0.00 | 0.00 | 47 | 1022.3 |
| 20260509021856 | 25 | 103 | 3.2 | 11.3 | 0.00 | 0.00 | 0.00 | 48 | 1022.4 |
| 20260509021744 | 25 | 191 | 3.2 | 11.3 | 0.00 | 0.00 | 0.00 | 47 | 1022.4 |
| 20260509021639 | 25 | 335 | 3.2 | 11.3 | 0.00 | 0.00 | 0.00 | 45 | 1022.4 |
| 20260509021524 | 25 | 212 | 4.8 | 11.3 | 0.00 | 0.00 | 0.00 | 47 | 1022.4 |
| 20260509021413 | 25 | 238 | 3.2 | 11.3 | 0.00 | 0.00 | 0.00 | 49 | 1022.5 |
| 20260509021306 | 25 | 183 | 3.2 | 11.3 | 0.00 | 0.00 | 0.00 | 49 | 1022.4 |
| 20260509021154 | 25 | 167 | 3.2 | 11.3 | 0.00 | 0.00 | 0.00 | 47 | 1022.5 |
| 20260509021044 | 25 | 145 | 3.2 | 11.3 | 0.00 | 0.00 | 0.00 | 45 | 1022.5 |
| 20260509020934 | 25 | 52 | 3.2 | 9.7 | 0.00 | 0.00 | 0.00 | 47 | 1022.5 |
| 20260509020825 | 25 | 68 | 1.6 | 9.7 | 0.00 | 0.00 | 0.00 | 49 | 1022.6 |
| 20260509020714 | 25 | 313 | 1.6 | 9.7 | 0.00 | 0.00 | 0.00 | 47 | 1022.6 |
| 20260509020608 | 25 | 121 | 1.6 | 9.7 | 0.00 | 0.00 | 0.00 | 46 | 1022.6 |
| 20260509020501 | 25 | 95 | 1.6 | 9.7 | 0.00 | 0.00 | 0.00 | 47 | 1022.6 |
| 20260509020402 | 25 | 288 | 1.6 | 4.8 | 0.00 | 0.00 | 0.00 | 50 | 1022.5 |
| 20260509020252 | 24 | 288 | 1.6 | 4.8 | 0.00 | 0.00 | 0.00 | 49 | 1022.5 |
| 20260509020142 | 24 | 355 | 1.6 | 4.8 | 0.00 | 0.00 | 0.00 | 53 | 1022.5 |
| 20260509020033 | 23 | 80 | 1.6 | 6.4 | 0.00 | 0.00 | 0.00 | 50 | 1022.5 |
| 20260509015923 | 23 | 138 | 1.6 | 6.4 | 0.00 | 0.00 | 0.00 | 49 | 1022.5 |
| 20260509015811 | 23 | 138 | 1.6 | 6.4 | 0.00 | 0.00 | 0.00 | 49 | 1022.4 |
| 20260509015731 | 23 | 107 | 1.6 | 6.4 | 0.00 | 0.00 | 0.00 | 48 | 1022.5 |
| 20260509015555 | 23 | 284 | 3.2 | 11.3 | 0.00 | 0.00 | 0.00 | 49 | 1022.5 |
| 20260509015442 | 23 | 5 | 3.2 | 11.3 | 0.00 | 0.00 | 0.00 | 49 | 1022.6 |
| 20260509015332 | 23 | 10 | 3.2 | 11.3 | 0.00 | 0.00 | 0.00 | 48 | 1022.6 |
| 20260509015230 | 23 | 49 | 3.2 | 11.3 | 0.00 | 0.00 | 0.00 | 49 | 1022.7 |
| 20260509015128 | 24 | 49 | 3.2 | 11.3 | 0.00 | 0.00 | 0.00 | 48 | 1022.6 |
| 20260509015030 | 24 | 78 | 4.8 | 11.3 | 0.00 | 0.00 | 0.00 | 51 | 1022.6 |
| 20260509014926 | 23 | 355 | 4.8 | 11.3 | 0.00 | 0.00 | 0.00 | 50 | 1022.6 |
| 20260509014825 | 23 | 155 | 4.8 | 11.3 | 0.00 | 0.00 | 0.00 | 49 | 1022.7 |
| 20260509014626 | 23 | 138 | 3.2 | 9.7 | 0.00 | 0.00 | 0.00 | 51 | 1022.6 |
| 20260509014519 | 23 | 30 | 3.2 | 9.7 | 0.00 | 0.00 | 0.00 | 49 | 1022.6 |
| 20260509014407 | 23 | 112 | 3.2 | 8.0 | 0.00 | 0.00 | 0.00 | 48 | 1022.6 |
| 20260509014257 | 24 | 142 | 3.2 | 8.0 | 0.00 | 0.00 | 0.00 | 49 | 1022.6 |
| 20260509014221 | 24 | 92 | 3.2 | 8.0 | 0.00 | 0.00 | 0.00 | 48 | 1022.7 |
| 20260509014037 | 24 | 141 | 4.8 | 12.9 | 0.00 | 0.00 | 0.00 | 47 | 1022.8 |
| 20260509013926 | 23 | 48 | 4.8 | 12.9 | 0.00 | 0.00 | 0.00 | 50 | 1022.8 |
| 20260509013817 | 23 | 219 | 4.8 | 12.9 | 0.00 | 0.00 | 0.00 | 54 | 1022.8 |
| 20260509013706 | 23 | 81 | 4.8 | 12.9 | 0.00 | 0.00 | 0.00 | 51 | 1022.9 |
| 20260509013556 | 23 | 167 | 4.8 | 12.9 | 0.00 | 0.00 | 0.00 | 52 | 1022.9 |
| 20260509013451 | 23 | 135 | 4.8 | 12.9 | 0.00 | 0.00 | 0.00 | 50 | 1022.9 |
| 20260509013423 | 23 | 12 | 4.8 | 12.9 | 0.00 | 0.00 | 0.00 | 51 | 1023.0 |
| 20260509013246 | 23 | 351 | 4.8 | 12.9 | 0.00 | 0.00 | 0.00 | 49 | 1022.9 |
| 20260509013134 | 23 | 74 | 4.8 | 12.9 | 0.00 | 0.00 | 0.00 | 49 | 1023.0 |
| 20260509013024 | 23 | 46 | 3.2 | 9.7 | 0.00 | 0.00 | 0.00 | 49 | 1023.0 |
| 20260509012913 | 23 | 92 | 3.2 | 9.7 | 0.00 | 0.00 | 0.00 | 50 | 1023.0 |
| 20260509012812 | 23 | 13 | 3.2 | 9.7 | 0.00 | 0.00 | 0.00 | 50 | 1022.9 |
| 20260509012723 | 23 | 0 | 1.6 | 8.0 | 0.00 | 0.00 | 0.00 | 53 | 1023.0 |
| 20260509012543 | 23 | 327 | 1.6 | 8.0 | 0.00 | 0.00 | 0.00 | 52 | 1023.0 |
| 20260509012437 | 23 | 96 | 1.6 | 8.0 | 0.00 | 0.00 | 0.00 | 50 | 1022.9 |
| 20260509012324 | 23 | 125 | 1.6 | 8.0 | 0.00 | 0.00 | 0.00 | 52 | 1023.0 |
| 20260509012213 | 22 | 44 | 3.2 | 8.0 | 0.00 | 0.00 | 0.00 | 53 | 1023.0 |
| 20260509012105 | 22 | 161 | 3.2 | 12.9 | 0.00 | 0.00 | 0.00 | 52 | 1023.0 |
| 20260509011953 | 22 | 161 | 4.8 | 12.9 | 0.00 | 0.00 | 0.00 | 57 | 1023.0 |
| 20260509011844 | 22 | 161 | 4.8 | 12.9 | 0.00 | 0.00 | 0.00 | 54 | 1023.0 |
| 20260509011742 | 22 | 105 | 4.8 | 12.9 | 0.00 | 0.00 | 0.00 | 53 | 1023.0 |
| 20260509011642 | 22 | 129 | 4.8 | 12.9 | 0.00 | 0.00 | 0.00 | 53 | 1023.0 |
| 20260509011539 | 22 | 129 | 4.8 | 12.9 | 0.00 | 0.00 | 0.00 | 52 | 1023.0 |
| 20260509011435 | 22 | 152 | 4.8 | 12.9 | 0.00 | 0.00 | 0.00 | 51 | 1022.9 |
| 20260509011336 | 22 | 99 | 3.2 | 12.9 | 0.00 | 0.00 | 0.00 | 51 | 1023.0 |
| 20260509011242 | 22 | 91 | 3.2 | 12.9 | 0.00 | 0.00 | 0.00 | 50 | 1022.9 |
| 20260509011218 | 23 | 92 | 3.2 | 11.3 | 0.00 | 0.00 | 0.00 | 50 | 1023.0 |
| 20260509011005 | 23 | 105 | 1.6 | 9.7 | 0.00 | 0.00 | 0.00 | 50 | 1022.9 |
| 20260509010858 | 23 | 211 | 1.6 | 6.4 | 0.00 | 0.00 | 0.00 | 52 | 1022.9 |
| 20260509010745 | 23 | 61 | 1.6 | 6.4 | 0.00 | 0.00 | 0.00 | 50 | 1023.0 |
| 20260509010634 | 23 | 158 | 1.6 | 6.4 | 0.00 | 0.00 | 0.00 | 52 | 1023.1 |
| 20260509010525 | 23 | 30 | 3.2 | 6.4 | 0.00 | 0.00 | 0.00 | 51 | 1023.1 |
| 20260509010420 | 23 | 325 | 3.2 | 6.4 | 0.00 | 0.00 | 0.00 | 50 | 1023.1 |
| 20260509010320 | 23 | 123 | 1.6 | 6.4 | 0.00 | 0.00 | 0.00 | 50 | 1023.2 |
| 20260509010219 | 23 | 82 | 1.6 | 6.4 | 0.00 | 0.00 | 0.00 | 52 | 1023.1 |
| 20260509010120 | 23 | 202 | 3.2 | 6.4 | 0.00 | 0.00 | 0.00 | 57 | 1023.2 |
| 20260509010017 | 23 | 207 | 3.2 | 8.0 | 0.00 | 0.00 | 0.00 | 50 | 1023.2 |
| 20260509005915 | 23 | 5 | 3.2 | 8.0 | 0.00 | 0.00 | 0.00 | 49 | 1023.1 |
| 20260509005814 | 23 | 153 | 3.2 | 8.0 | 0.00 | 0.00 | 0.00 | 49 | 1023.3 |
| 20260509005704 | 23 | 115 | 3.2 | 8.0 | 0.00 | 0.00 | 0.00 | 49 | 1023.2 |
| 20260509005600 | 23 | 117 | 3.2 | 9.7 | 0.00 | 0.00 | 0.00 | 53 | 1023.2 |
| 20260509005458 | 23 | 15 | 3.2 | 9.7 | 0.00 | 0.00 | 0.00 | 52 | 1023.2 |
| 20260509005358 | 23 | 214 | 3.2 | 9.7 | 0.00 | 0.00 | 0.00 | 53 | 1023.1 |
| 20260509005300 | 23 | 126 | 3.2 | 9.7 | 0.00 | 0.00 | 0.00 | 52 | 1023.2 |
| 20260509005151 | 23 | 141 | 3.2 | 9.7 | 0.00 | 0.00 | 0.00 | 54 | 1023.1 |
| 20260509005039 | 23 | 69 | 3.2 | 9.7 | 0.00 | 0.00 | 0.00 | 53 | 1023.2 |
| 20260509004930 | 23 | 84 | 3.2 | 9.7 | 0.00 | 0.00 | 0.00 | 51 | 1023.1 |
| 20260509004825 | 23 | 22 | 3.2 | 9.7 | 0.00 | 0.00 | 0.00 | 51 | 1023.1 |
| 20260509004718 | 23 | 14 | 3.2 | 9.7 | 0.00 | 0.00 | 0.00 | 52 | 1023.1 |
| 20260509004618 | 23 | 123 | 1.6 | 9.7 | 0.00 | 0.00 | 0.00 | 59 | 1023.0 |
| 20260509004508 | 23 | 110 | 1.6 | 9.7 | 0.00 | 0.00 | 0.00 | 55 | 1023.1 |
| 20260509004358 | 23 | 213 | 1.6 | 9.7 | 0.00 | 0.00 | 0.00 | 53 | 1023.1 |
| 20260509004248 | 23 | 177 | 1.6 | 9.7 | 0.00 | 0.00 | 0.00 | 50 | 1023.1 |
| 20260509004140 | 23 | 205 | 1.6 | 9.7 | 0.00 | 0.00 | 0.00 | 54 | 1023.0 |
| 20260509004033 | 23 | 194 | 3.2 | 8.0 | 0.00 | 0.00 | 0.00 | 54 | 1023.1 |
| 20260509003918 | 23 | 189 | 3.2 | 11.3 | 0.00 | 0.00 | 0.00 | 53 | 1023.1 |
| 20260509003813 | 23 | 171 | 3.2 | 14.5 | 0.00 | 0.00 | 0.00 | 56 | 1023.1 |
| 20260509003711 | 23 | 119 | 3.2 | 14.5 | 0.00 | 0.00 | 0.00 | 55 | 1023.0 |
| 20260509003612 | 23 | 146 | 3.2 | 14.5 | 0.00 | 0.00 | 0.00 | 54 | 1023.0 |
| 20260509003501 | 22 | 283 | 3.2 | 14.5 | 0.00 | 0.00 | 0.00 | 51 | 1023.1 |
| 20260509003351 | 23 | 267 | 3.2 | 14.5 | 0.00 | 0.00 | 0.00 | 50 | 1023.1 |
| 20260509003245 | 23 | 158 | 3.2 | 14.5 | 0.00 | 0.00 | 0.00 | 53 | 1023.0 |
| 20260509003138 | 23 | 208 | 3.2 | 14.5 | 0.00 | 0.00 | 0.00 | 52 | 1023.1 |
| 20260509003040 | 22 | 205 | 3.2 | 14.5 | 0.00 | 0.00 | 0.00 | 53 | 1023.1 |
| 20260509002930 | 22 | 185 | 3.2 | 14.5 | 0.00 | 0.00 | 0.00 | 53 | 1023.0 |
| 20260509002823 | 22 | 223 | 3.2 | 9.7 | 0.00 | 0.00 | 0.00 | 54 | 1023.2 |
| 20260509002723 | 22 | 167 | 1.6 | 9.7 | 0.00 | 0.00 | 0.00 | 54 | 1023.2 |
| 20260509002624 | 22 | 200 | 1.6 | 6.4 | 0.00 | 0.00 | 0.00 | 56 | 1023.3 |
| 20260509002517 | 22 | 78 | 1.6 | 6.4 | 0.00 | 0.00 | 0.00 | 53 | 1023.3 |
| 20260509002416 | 22 | 126 | 1.6 | 6.4 | 0.00 | 0.00 | 0.00 | 54 | 1023.3 |
| 20260509002318 | 22 | 263 | 1.6 | 4.8 | 0.00 | 0.00 | 0.00 | 54 | 1023.2 |
| 20260509002208 | 22 | 277 | 1.6 | 4.8 | 0.00 | 0.00 | 0.00 | 54 | 1023.3 |
| 20260509002100 | 22 | 265 | 1.6 | 3.2 | 0.00 | 0.00 | 0.00 | 55 | 1023.2 |
| 20260509001948 | 21 | 236 | 1.6 | 6.4 | 0.00 | 0.00 | 0.00 | 55 | 1023.3 |
| 20260509001846 | 21 | 241 | 1.6 | 6.4 | 0.00 | 0.00 | 0.00 | 53 | 1023.2 |
| 20260509001743 | 21 | 196 | 3.2 | 8.0 | 0.00 | 0.00 | 0.00 | 54 | 1023.3 |
| 20260509001641 | 22 | 219 | 3.2 | 8.0 | 0.00 | 0.00 | 0.00 | 54 | 1023.3 |
| 20260509001539 | 21 | 170 | 3.2 | 8.0 | 0.00 | 0.00 | 0.00 | 55 | 1023.2 |
| 20260509001438 | 21 | 229 | 4.8 | 12.9 | 0.00 | 0.00 | 0.00 | 55 | 1023.2 |
| 20260509001330 | 21 | 283 | 4.8 | 12.9 | 0.00 | 0.00 | 0.00 | 56 | 1023.2 |
| 20260509001231 | 21 | 283 | 4.8 | 12.9 | 0.00 | 0.00 | 0.00 | 55 | 1023.2 |
| 20260509001132 | 21 | 227 | 4.8 | 12.9 | 0.00 | 0.00 | 0.00 | 53 | 1023.2 |
| 20260509000912 | 21 | 257 | 4.8 | 12.9 | 0.00 | 0.00 | 0.00 | 57 | 1023.1 |
| 20260509000809 | 21 | 226 | 4.8 | 12.9 | 0.00 | 0.00 | 0.00 | 56 | 1023.1 |
| 20260509000705 | 21 | 267 | 4.8 | 12.9 | 0.00 | 0.00 | 0.00 | 55 | 1023.2 |
| 20260509000606 | 21 | 252 | 4.8 | 12.9 | 0.00 | 0.00 | 0.00 | 57 | 1023.1 |
| 20260509000456 | 21 | 285 | 4.8 | 9.7 | 0.00 | 0.00 | 0.00 | 57 | 1023.3 |
| 20260509000347 | 21 | 263 | 4.8 | 9.7 | 0.00 | 0.00 | 0.00 | 56 | 1023.1 |
| 20260509000237 | 21 | 256 | 4.8 | 9.7 | 0.00 | 0.00 | 0.00 | 54 | 1023.1 |
| 20260509000128 | 21 | 268 | 3.2 | 9.7 | 0.00 | 0.00 | 0.00 | 56 | 1023.2 |
| 20260509000022 | 22 | 261 | 3.2 | 9.7 | 0.00 | 0.00 | 0.00 | 57 | 1023.2 |
| 20260508235925 | 21 | 283 | 3.2 | 9.7 | 0.00 | 0.00 | 0.00 | 55 | 1023.0 |
| 20260508235816 | 21 | 238 | 3.2 | 9.7 | 0.00 | 0.00 | 0.00 | 57 | 1023.0 |
| 20260508235718 | 21 | 232 | 3.2 | 9.7 | 0.00 | 0.00 | 0.00 | 57 | 1023.1 |
| 20260508235622 | 21 | 249 | 1.6 | 8.0 | 0.00 | 0.00 | 0.00 | 60 | 1023.1 |
| 20260508235400 | 21 | 265 | 1.6 | 6.4 | 0.00 | 0.00 | 0.00 | 57 | 1023.1 |
| 20260508235301 | 21 | 253 | 1.6 | 6.4 | 0.00 | 0.00 | 0.00 | 60 | 1023.1 |
| 20260508235202 | 21 | 324 | 1.6 | 4.8 | 0.00 | 0.00 | 0.00 | 62 | 1023.2 |
| 20260508235054 | 20 | 267 | 1.6 | 4.8 | 0.00 | 0.00 | 0.00 | 63 | 1023.2 |
| 20260508234942 | 20 | 32 | 1.6 | 4.8 | 0.00 | 0.00 | 0.00 | 65 | 1023.2 |
| 20260508234832 | 20 | 5 | 1.6 | 6.4 | 0.00 | 0.00 | 0.00 | 66 | 1023.1 |
| 20260508234724 | 20 | 348 | 1.6 | 6.4 | 0.00 | 0.00 | 0.00 | 67 | 1023.2 |
| 20260508234615 | 20 | 282 | 3.2 | 6.4 | 0.00 | 0.00 | 0.00 | 68 | 1023.2 |
| 20260508234509 | 20 | 282 | 3.2 | 6.4 | 0.00 | 0.00 | 0.00 | 67 | 1023.2 |
| 20260508234410 | 19 | 355 | 3.2 | 6.4 | 0.00 | 0.00 | 0.00 | 67 | 1023.1 |
| 20260508234300 | 19 | 30 | 3.2 | 6.4 | 0.00 | 0.00 | 0.00 | 70 | 1023.2 |
| 20260508234150 | 19 | 30 | 3.2 | 6.4 | 0.00 | 0.00 | 0.00 | 71 | 1023.2 |
| 20260508234042 | 19 | 30 | 3.2 | 6.4 | 0.00 | 0.00 | 0.00 | 68 | 1023.1 |
| 20260508233929 | 19 | 40 | 3.2 | 6.4 | 0.00 | 0.00 | 0.00 | 69 | 1023.1 |
| 20260508233819 | 19 | 5 | 1.6 | 4.8 | 0.00 | 0.00 | 0.00 | 73 | 1023.2 |
| 20260508233711 | 18 | 44 | 1.6 | 4.8 | 0.00 | 0.00 | 0.00 | 71 | 1023.1 |
| 20260508233604 | 18 | 44 | 1.6 | 4.8 | 0.00 | 0.00 | 0.00 | 71 | 1023.1 |
| 20260508233449 | 18 | 27 | 1.6 | 4.8 | 0.00 | 0.00 | 0.00 | 72 | 1023.1 |
| 20260508233340 | 18 | 33 | 1.6 | 4.8 | 0.00 | 0.00 | 0.00 | 71 | 1023.1 |
| 20260508233230 | 18 | 105 | 0.0 | 3.2 | 0.00 | 0.00 | 0.00 | 70 | 1023.1 |
| 20260508233120 | 18 | 105 | 0.0 | 3.2 | 0.00 | 0.00 | 0.00 | 71 | 1023.0 |
| 20260508233010 | 18 | 105 | 0.0 | 3.2 | 0.00 | 0.00 | 0.00 | 71 | 1023.2 |
| 20260508232907 | 18 | 105 | 0.0 | 3.2 | 0.00 | 0.00 | 0.00 | 72 | 1023.2 |
| 20260508232807 | 18 | 115 | 0.0 | 3.2 | 0.00 | 0.00 | 0.00 | 73 | 1023.0 |
| 20260508232703 | 17 | 115 | 0.0 | 3.2 | 0.00 | 0.00 | 0.00 | 73 | 1023.0 |
| 20260508232602 | 17 | 114 | 0.0 | 3.2 | 0.00 | 0.00 | 0.00 | 72 | 1023.0 |
| 20260508232352 | 17 | 309 | 0.0 | 3.2 | 0.00 | 0.00 | 0.00 | 72 | 1022.9 |
| 20260508232243 | 17 | 309 | 0.0 | 3.2 | 0.00 | 0.00 | 0.00 | 74 | 1022.9 |
| 20260508232131 | 17 | 309 | 0.0 | 3.2 | 0.00 | 0.00 | 0.00 | 75 | 1022.9 |
| 20260508232037 | 17 | 309 | 0.0 | 1.6 | 0.00 | 0.00 | 0.00 | 74 | 1022.9 |
| 20260508231914 | 17 | 309 | 0.0 | 3.2 | 0.00 | 0.00 | 0.00 | 73 | 1022.9 |
| 20260508231805 | 16 | 309 | 0.0 | 3.2 | 0.00 | 0.00 | 0.00 | 74 | 1022.9 |
| 20260508231701 | 16 | 309 | 0.0 | 3.2 | 0.00 | 0.00 | 0.00 | 75 | 1022.9 |
| 20260508231559 | 16 | 309 | 0.0 | 3.2 | 0.00 | 0.00 | 0.00 | 74 | 1023.1 |
| 20260508231504 | 16 | 309 | 1.6 | 3.2 | 0.00 | 0.00 | 0.00 | 73 | 1023.1 |
| 20260508231358 | 16 | 309 | 1.6 | 3.2 | 0.00 | 0.00 | 0.00 | 74 | 1023.1 |
| 20260508231259 | 16 | 309 | 1.6 | 3.2 | 0.00 | 0.00 | 0.00 | 74 | 1023.2 |
| 20260508231150 | 16 | 309 | 1.6 | 3.2 | 0.00 | 0.00 | 0.00 | 74 | 1023.0 |
| 20260508231040 | 16 | 309 | 1.6 | 3.2 | 0.00 | 0.00 | 0.00 | 76 | 1023.1 |
| 20260508230931 | 16 | 314 | 1.6 | 3.2 | 0.00 | 0.00 | 0.00 | 76 | 1023.1 |
| 20260508230822 | 16 | 314 | 1.6 | 3.2 | 0.00 | 0.00 | 0.00 | 77 | 1023.0 |
| 20260508230712 | 16 | 314 | 1.6 | 3.2 | 0.00 | 0.00 | 0.00 | 77 | 1023.1 |
| 20260508230604 | 16 | 43 | 1.6 | 3.2 | 0.00 | 0.00 | 0.00 | 77 | 1023.0 |
| 20260508230510 | 16 | 50 | 1.6 | 3.2 | 0.00 | 0.00 | 0.00 | 77 | 1023.0 |
| 20260508230350 | 16 | 33 | 1.6 | 3.2 | 0.00 | 0.00 | 0.00 | 77 | 1023.0 |
| 20260508230248 | 15 | 33 | 0.0 | 3.2 | 0.00 | 0.00 | 0.00 | 76 | 1022.9 |
| 20260508230150 | 15 | 33 | 0.0 | 3.2 | 0.00 | 0.00 | 0.00 | 76 | 1022.9 |
| 20260508230040 | 16 | 11 | 0.0 | 3.2 | 0.00 | 0.00 | 0.00 | 78 | 1022.8 |
| 20260508225938 | 15 | 11 | 0.0 | 3.2 | 0.00 | 0.00 | 0.00 | 78 | 1022.9 |
| 20260508225834 | 15 | 11 | 0.0 | 3.2 | 0.00 | 0.00 | 0.00 | 77 | 1022.8 |
| 20260508225732 | 15 | 11 | 0.0 | 1.6 | 0.00 | 0.00 | 0.00 | 77 | 1022.8 |
| 20260508225632 | 15 | 11 | 0.0 | 0.0 | 0.00 | 0.00 | 0.00 | 77 | 1022.8 |
| 20260508225531 | 15 | 11 | 0.0 | 0.0 | 0.00 | 0.00 | 0.00 | 77 | 1022.8 |
| 20260508225426 | 15 | 11 | 0.0 | 3.2 | 0.00 | 0.00 | 0.00 | 77 | 1022.9 |
| 20260508225316 | 15 | 11 | 0.0 | 3.2 | 0.00 | 0.00 | 0.00 | 78 | 1022.9 |
| 20260508225207 | 15 | 11 | 0.0 | 3.2 | 0.00 | 0.00 | 0.00 | 78 | 1022.8 |
| 20260508225059 | 15 | 11 | 0.0 | 3.2 | 0.00 | 0.00 | 0.00 | 78 | 1022.8 |
| 20260508224950 | 15 | 11 | 0.0 | 3.2 | 0.00 | 0.00 | 0.00 | 77 | 1022.9 |
| 20260508224840 | 15 | 11 | 0.0 | 3.2 | 0.00 | 0.00 | 0.00 | 79 | 1022.8 |
| 20260508224730 | 15 | 11 | 0.0 | 3.2 | 0.00 | 0.00 | 0.00 | 77 | 1022.9 |
| 20260508224622 | 15 | 11 | 0.0 | 3.2 | 0.00 | 0.00 | 0.00 | 77 | 1022.8 |
| 20260508224512 | 15 | 11 | 0.0 | 3.2 | 0.00 | 0.00 | 0.00 | 77 | 1022.8 |
| 20260508224408 | 15 | 22 | 0.0 | 3.2 | 0.00 | 0.00 | 0.00 | 77 | 1022.8 |
| 20260508224302 | 15 | 294 | 0.0 | 0.0 | 0.00 | 0.00 | 0.00 | 78 | 1022.8 |
| 20260508224201 | 15 | 294 | 0.0 | 0.0 | 0.00 | 0.00 | 0.00 | 77 | 1022.7 |
| 20260508224116 | 15 | 294 | 0.0 | 0.0 | 0.00 | 0.00 | 0.00 | 78 | 1022.7 |
| 20260508223942 | 15 | 294 | 0.0 | 0.0 | 0.00 | 0.00 | 0.00 | 78 | 1022.7 |
| 20260508223832 | 15 | 294 | 0.0 | 0.0 | 0.00 | 0.00 | 0.00 | 79 | 1022.8 |
| 20260508223722 | 14 | 294 | 0.0 | 0.0 | 0.00 | 0.00 | 0.00 | 79 | 1022.7 |
| 20260508223614 | 14 | 294 | 0.0 | 0.0 | 0.00 | 0.00 | 0.00 | 79 | 1022.7 |
| 20260508223506 | 14 | 294 | 0.0 | 0.0 | 0.00 | 0.00 | 0.00 | 80 | 1022.6 |
| 20260508223404 | 14 | 294 | 0.0 | 0.0 | 0.00 | 0.00 | 0.00 | 81 | 1022.6 |
| 20260508223301 | 13 | 294 | 0.0 | 0.0 | 0.00 | 0.00 | 0.00 | 80 | 1022.7 |
| 20260508223200 | 13 | 294 | 0.0 | 0.0 | 0.00 | 0.00 | 0.00 | 81 | 1022.7 |
| 20260508223102 | 13 | 294 | 0.0 | 0.0 | 0.00 | 0.00 | 0.00 | 81 | 1022.8 |
| 20260508222952 | 13 | 294 | 0.0 | 0.0 | 0.00 | 0.00 | 0.00 | 81 | 1022.8 |
| 20260508222848 | 13 | 294 | 0.0 | 0.0 | 0.00 | 0.00 | 0.00 | 81 | 1022.8 |
| 20260508222744 | 13 | 294 | 0.0 | 0.0 | 0.00 | 0.00 | 0.00 | 81 | 1022.9 |
| 20260508222642 | 13 | 294 | 0.0 | 0.0 | 0.00 | 0.00 | 0.00 | 82 | 1022.8 |
| 20260508222532 | 13 | 294 | 0.0 | 0.0 | 0.00 | 0.00 | 0.00 | 82 | 1022.9 |
| 20260508222422 | 13 | 294 | 0.0 | 0.0 | 0.00 | 0.00 | 0.00 | 83 | 1023.0 |
| 20260508222318 | 13 | 294 | 0.0 | 0.0 | 0.00 | 0.00 | 0.00 | 85 | 1022.9 |
| 20260508222205 | 12 | 294 | 0.0 | 0.0 | 0.00 | 0.00 | 0.00 | 84 | 1022.8 |
| 20260508222100 | 12 | 294 | 0.0 | 0.0 | 0.00 | 0.00 | 0.00 | 84 | 1022.8 |
| 20260508221959 | 12 | 294 | 0.0 | 0.0 | 0.00 | 0.00 | 0.00 | 83 | 1022.9 |
| 20260508221901 | 12 | 294 | 0.0 | 0.0 | 0.00 | 0.00 | 0.00 | 84 | 1022.7 |
| 20260508221759 | 12 | 294 | 0.0 | 0.0 | 0.00 | 0.00 | 0.00 | 84 | 1022.8 |
| 20260508221656 | 12 | 294 | 0.0 | 0.0 | 0.00 | 0.00 | 0.00 | 84 | 1022.7 |
| 20260508221558 | 12 | 294 | 0.0 | 0.0 | 0.00 | 0.00 | 0.00 | 85 | 1022.8 |
| 20260508221458 | 12 | 294 | 0.0 | 1.6 | 0.00 | 0.00 | 0.00 | 85 | 1022.8 |
| 20260508221356 | 12 | 294 | 0.0 | 1.6 | 0.00 | 0.00 | 0.00 | 85 | 1022.8 |
| 20260508221254 | 12 | 294 | 0.0 | 1.6 | 0.00 | 0.00 | 0.00 | 87 | 1022.7 |
| 20260508221147 | 12 | 294 | 0.0 | 1.6 | 0.00 | 0.00 | 0.00 | 87 | 1022.7 |
| 20260508221044 | 11 | 294 | 0.0 | 1.6 | 0.00 | 0.00 | 0.00 | 87 | 1022.7 |
| 20260508220946 | 11 | 294 | 0.0 | 1.6 | 0.00 | 0.00 | 0.00 | 87 | 1022.7 |
| 20260508220841 | 11 | 294 | 0.0 | 1.6 | 0.00 | 0.00 | 0.00 | 87 | 1022.7 |
| 20260508220743 | 11 | 294 | 0.0 | 1.6 | 0.00 | 0.00 | 0.00 | 87 | 1022.7 |
| 20260508220639 | 11 | 294 | 0.0 | 1.6 | 0.00 | 0.00 | 0.00 | 87 | 1022.8 |
| 20260508220534 | 11 | 294 | 0.0 | 1.6 | 0.00 | 0.00 | 0.00 | 88 | 1022.7 |
| 20260508220430 | 11 | 294 | 0.0 | 1.6 | 0.00 | 0.00 | 0.00 | 88 | 1022.7 |
| 20260508220331 | 11 | 294 | 0.0 | 1.6 | 0.00 | 0.00 | 0.00 | 89 | 1022.7 |
| 20260508220223 | 11 | 294 | 0.0 | 0.0 | 0.00 | 0.00 | 0.00 | 89 | 1022.7 |
| 20260508220057 | 11 | 294 | 0.0 | 0.0 | 0.00 | 0.00 | 0.00 | 90 | 1022.6 |
| 20260508215957 | 11 | 294 | 0.0 | 0.0 | 0.00 | 0.00 | 0.00 | 90 | 1022.7 |
| 20260508215851 | 10 | 294 | 0.0 | 0.0 | 0.00 | 0.00 | 0.00 | 90 | 1022.6 |
| 20260508215752 | 10 | 294 | 0.0 | 0.0 | 0.00 | 0.00 | 0.00 | 89 | 1022.6 |
| 20260508215652 | 10 | 294 | 0.0 | 0.0 | 0.00 | 0.00 | 0.00 | 90 | 1022.5 |
| 20260508215550 | 10 | 294 | 0.0 | 0.0 | 0.00 | 0.00 | 0.00 | 90 | 1022.5 |
| 20260508215448 | 10 | 294 | 0.0 | 0.0 | 0.00 | 0.00 | 0.00 | 90 | 1022.5 |
| 20260508215340 | 10 | 294 | 0.0 | 0.0 | 0.00 | 0.00 | 0.00 | 90 | 1022.5 |
| 20260508215234 | 10 | 294 | 0.0 | 0.0 | 0.00 | 0.00 | 0.00 | 90 | 1022.5 |
| 20260508215121 | 10 | 294 | 0.0 | 0.0 | 0.00 | 0.00 | 0.00 | 90 | 1022.4 |
| 20260508215019 | 10 | 294 | 0.0 | 0.0 | 0.00 | 0.00 | 0.00 | 91 | 1022.4 |
| 20260508214917 | 10 | 294 | 0.0 | 0.0 | 0.00 | 0.00 | 0.00 | 90 | 1022.4 |
| 20260508214815 | 10 | 294 | 0.0 | 0.0 | 0.00 | 0.00 | 0.00 | 91 | 1022.4 |
| 20260508214713 | 10 | 294 | 0.0 | 0.0 | 0.00 | 0.00 | 0.00 | 91 | 1022.4 |
| 20260508214609 | 10 | 294 | 0.0 | 0.0 | 0.00 | 0.00 | 0.00 | 91 | 1022.4 |
| 20260508214514 | 10 | 294 | 0.0 | 0.0 | 0.00 | 0.00 | 0.00 | 91 | 1022.3 |
| 20260508214402 | 10 | 294 | 0.0 | 0.0 | 0.00 | 0.00 | 0.00 | 91 | 1022.3 |
| 20260508214256 | 10 | 294 | 0.0 | 0.0 | 0.00 | 0.00 | 0.00 | 91 | 1022.4 |
| 20260508214159 | 10 | 294 | 0.0 | 0.0 | 0.00 | 0.00 | 0.00 | 91 | 1022.3 |
| 20260508214056 | 10 | 294 | 0.0 | 0.0 | 0.00 | 0.00 | 0.00 | 91 | 1022.3 |
| 20260508213856 | 10 | 294 | 0.0 | 0.0 | 0.00 | 0.00 | 0.00 | 91 | 1022.2 |
| 20260508213756 | 10 | 294 | 0.0 | 0.0 | 0.00 | 0.00 | 0.00 | 91 | 1022.2 |
| 20260508213658 | 10 | 294 | 0.0 | 0.0 | 0.00 | 0.00 | 0.00 | 91 | 1022.3 |
| 20260508213553 | 10 | 294 | 0.0 | 0.0 | 0.00 | 0.00 | 0.00 | 91 | 1022.2 |
| 20260508213450 | 9 | 294 | 0.0 | 0.0 | 0.00 | 0.00 | 0.00 | 91 | 1022.2 |
| 20260508213349 | 9 | 294 | 0.0 | 0.0 | 0.00 | 0.00 | 0.00 | 91 | 1022.1 |
| 20260508213247 | 9 | 294 | 0.0 | 0.0 | 0.00 | 0.00 | 0.00 | 91 | 1022.2 |
| 20260508213143 | 9 | 294 | 0.0 | 0.0 | 0.00 | 0.00 | 0.00 | 91 | 1022.1 |
| 20260508213043 | 9 | 294 | 0.0 | 0.0 | 0.00 | 0.00 | 0.00 | 91 | 1022.1 |
| 20260508212934 | 9 | 294 | 0.0 | 0.0 | 0.00 | 0.00 | 0.00 | 91 | 1022.2 |
| 20260508212824 | 9 | 294 | 0.0 | 0.0 | 0.00 | 0.00 | 0.00 | 91 | 1022.1 |
| 20260508212719 | 9 | 294 | 0.0 | 0.0 | 0.00 | 0.00 | 0.00 | 91 | 1022.1 |
| 20260508212619 | 9 | 294 | 0.0 | 0.0 | 0.00 | 0.00 | 0.00 | 91 | 1022.1 |
| 20260508212518 | 9 | 294 | 0.0 | 0.0 | 0.00 | 0.00 | 0.00 | 91 | 1022.1 |
| 20260508212415 | 9 | 294 | 0.0 | 1.6 | 0.00 | 0.00 | 0.00 | 91 | 1022.0 |
| 20260508212313 | 9 | 294 | 0.0 | 1.6 | 0.00 | 0.00 | 0.00 | 91 | 1022.1 |
| 20260508212212 | 9 | 294 | 0.0 | 1.6 | 0.00 | 0.00 | 0.00 | 91 | 1022.1 |
| 20260508212107 | 9 | 294 | 0.0 | 1.6 | 0.00 | 0.00 | 0.00 | 91 | 1022.0 |
| 20260508212010 | 9 | 294 | 0.0 | 1.6 | 0.00 | 0.00 | 0.00 | 91 | 1021.9 |
| 20260508211858 | 9 | 294 | 0.0 | 1.6 | 0.00 | 0.00 | 0.00 | 91 | 1021.9 |
| 20260508211750 | 9 | 294 | 0.0 | 1.6 | 0.00 | 0.00 | 0.00 | 91 | 1022.0 |
| 20260508211639 | 9 | 294 | 0.0 | 1.6 | 0.00 | 0.00 | 0.00 | 91 | 1021.9 |
| 20260508211533 | 9 | 294 | 0.0 | 1.6 | 0.00 | 0.00 | 0.00 | 91 | 1021.9 |
| 20260508211423 | 9 | 294 | 0.0 | 1.6 | 0.00 | 0.00 | 0.00 | 91 | 1021.9 |
| 20260508211325 | 9 | 294 | 0.0 | 1.6 | 0.00 | 0.00 | 0.00 | 91 | 1021.9 |
| 20260508211223 | 8 | 294 | 0.0 | 1.6 | 0.00 | 0.00 | 0.00 | 91 | 1021.8 |
| 20260508211121 | 8 | 294 | 0.0 | 0.0 | 0.00 | 0.00 | 0.00 | 91 | 1021.9 |
| 20260508211055 | 8 | 294 | 0.0 | 0.0 | 0.00 | 0.00 | 0.00 | 91 | 1021.8 |
| 20260508210918 | 8 | 294 | 0.0 | 0.0 | 0.00 | 0.00 | 0.00 | 91 | 1021.8 |
| 20260508210809 | 8 | 294 | 0.0 | 0.0 | 0.00 | 0.00 | 0.00 | 91 | 1021.8 |
| 20260508210705 | 8 | 294 | 0.0 | 0.0 | 0.00 | 0.00 | 0.00 | 91 | 1021.9 |
| 20260508210605 | 8 | 294 | 0.0 | 0.0 | 0.00 | 0.00 | 0.00 | 91 | 1021.8 |
| 20260508210504 | 8 | 294 | 0.0 | 0.0 | 0.00 | 0.00 | 0.00 | 91 | 1021.8 |
| 20260508210359 | 8 | 294 | 0.0 | 0.0 | 0.00 | 0.00 | 0.00 | 91 | 1021.8 |
| 20260508210259 | 8 | 294 | 0.0 | 0.0 | 0.00 | 0.00 | 0.00 | 90 | 1021.8 |
| 20260508210156 | 8 | 294 | 0.0 | 0.0 | 0.00 | 0.00 | 0.00 | 89 | 1021.7 |
| 20260508210055 | 8 | 294 | 0.0 | 0.0 | 0.00 | 0.00 | 0.00 | 89 | 1021.8 |
| 20260508205953 | 8 | 294 | 0.0 | 0.0 | 0.00 | 0.00 | 0.00 | 89 | 1021.8 |
| 20260508205848 | 8 | 294 | 0.0 | 0.0 | 0.00 | 0.00 | 0.00 | 89 | 1021.7 |
| 20260508205748 | 8 | 294 | 0.0 | 0.0 | 0.00 | 0.00 | 0.00 | 89 | 1021.8 |
| 20260508205647 | 8 | 294 | 0.0 | 0.0 | 0.00 | 0.00 | 0.00 | 89 | 1021.7 |
| 20260508205545 | 8 | 294 | 0.0 | 0.0 | 0.00 | 0.00 | 0.00 | 89 | 1021.8 |
| 20260508205445 | 8 | 294 | 0.0 | 0.0 | 0.00 | 0.00 | 0.00 | 89 | 1021.7 |
| 20260508205342 | 8 | 294 | 0.0 | 0.0 | 0.00 | 0.00 | 0.00 | 89 | 1021.7 |
| 20260508205233 | 8 | 294 | 0.0 | 0.0 | 0.00 | 0.00 | 0.00 | 89 | 1021.8 |
| 20260508205131 | 8 | 294 | 0.0 | 0.0 | 0.00 | 0.00 | 0.00 | 89 | 1021.8 |
| 20260508205030 | 8 | 294 | 0.0 | 0.0 | 0.00 | 0.00 | 0.00 | 89 | 1021.8 |
| 20260508204918 | 8 | 294 | 0.0 | 0.0 | 0.00 | 0.00 | 0.00 | 89 | 1021.8 |
| 20260508204811 | 8 | 294 | 0.0 | 0.0 | 0.00 | 0.00 | 0.00 | 89 | 1021.8 |
| 20260508204659 | 8 | 294 | 0.0 | 0.0 | 0.00 | 0.00 | 0.00 | 89 | 1021.7 |
| 20260508204549 | 8 | 294 | 0.0 | 0.0 | 0.00 | 0.00 | 0.00 | 89 | 1021.7 |
| 20260508204444 | 8 | 294 | 0.0 | 0.0 | 0.00 | 0.00 | 0.00 | 89 | 1021.7 |
| 20260508204329 | 8 | 294 | 0.0 | 0.0 | 0.00 | 0.00 | 0.00 | 89 | 1021.7 |
| 20260508204219 | 8 | 294 | 0.0 | 0.0 | 0.00 | 0.00 | 0.00 | 89 | 1021.8 |
| 20260508204109 | 8 | 294 | 0.0 | 0.0 | 0.00 | 0.00 | 0.00 | 89 | 1021.7 |
| 20260508203959 | 8 | 294 | 0.0 | 1.6 | 0.00 | 0.00 | 0.00 | 89 | 1021.7 |
| 20260508203849 | 7 | 294 | 0.0 | 1.6 | 0.00 | 0.00 | 0.00 | 89 | 1021.7 |
| 20260508203746 | 8 | 294 | 0.0 | 1.6 | 0.00 | 0.00 | 0.00 | 89 | 1021.6 |
| 20260508203647 | 8 | 294 | 0.0 | 1.6 | 0.00 | 0.00 | 0.00 | 89 | 1021.7 |
| 20260508203537 | 7 | 294 | 0.0 | 1.6 | 0.00 | 0.00 | 0.00 | 89 | 1021.6 |
| 20260508203431 | 8 | 294 | 0.0 | 1.6 | 0.00 | 0.00 | 0.00 | 89 | 1021.5 |
| 20260508203317 | 8 | 294 | 0.0 | 1.6 | 0.00 | 0.00 | 0.00 | 89 | 1021.6 |
| 20260508203208 | 8 | 294 | 0.0 | 1.6 | 0.00 | 0.00 | 0.00 | 89 | 1021.6 |
| 20260508203057 | 8 | 294 | 0.0 | 1.6 | 0.00 | 0.00 | 0.00 | 89 | 1021.5 |
| 20260508202947 | 8 | 294 | 0.0 | 0.0 | 0.00 | 0.00 | 0.00 | 89 | 1021.5 |
| 20260508202837 | 8 | 294 | 0.0 | 0.0 | 0.00 | 0.00 | 0.00 | 89 | 1021.4 |
| 20260508202728 | 8 | 294 | 0.0 | 0.0 | 0.00 | 0.00 | 0.00 | 89 | 1021.4 |
| 20260508202507 | 8 | 294 | 0.0 | 0.0 | 0.00 | 0.00 | 0.00 | 89 | 1021.4 |
| 20260508202403 | 8 | 294 | 0.0 | 0.0 | 0.00 | 0.00 | 0.00 | 89 | 1021.3 |
| 20260508202253 | 8 | 294 | 0.0 | 0.0 | 0.00 | 0.00 | 0.00 | 89 | 1021.5 |
| 20260508202149 | 8 | 294 | 0.0 | 0.0 | 0.00 | 0.00 | 0.00 | 89 | 1021.4 |
| 20260508202051 | 8 | 294 | 0.0 | 0.0 | 0.00 | 0.00 | 0.00 | 89 | 1021.4 |
| 20260508201941 | 8 | 294 | 0.0 | 0.0 | 0.00 | 0.00 | 0.00 | 89 | 1021.4 |
| 20260508201835 | 8 | 294 | 0.0 | 0.0 | 0.00 | 0.00 | 0.00 | 89 | 1021.3 |
| 20260508201721 | 8 | 294 | 0.0 | 0.0 | 0.00 | 0.00 | 0.00 | 89 | 1021.4 |
| 20260508201612 | 8 | 294 | 0.0 | 0.0 | 0.00 | 0.00 | 0.00 | 89 | 1021.3 |
| 20260508201502 | 8 | 294 | 0.0 | 0.0 | 0.00 | 0.00 | 0.00 | 89 | 1021.3 |
| 20260508201357 | 8 | 294 | 0.0 | 0.0 | 0.00 | 0.00 | 0.00 | 89 | 1021.3 |
| 20260508201240 | 8 | 294 | 0.0 | 0.0 | 0.00 | 0.00 | 0.00 | 89 | 1021.3 |
| 20260508201131 | 8 | 294 | 0.0 | 1.6 | 0.00 | 0.00 | 0.00 | 89 | 1021.3 |
| 20260508201039 | 8 | 294 | 0.0 | 1.6 | 0.00 | 0.00 | 0.00 | 89 | 1021.2 |
| 20260508201016 | 8 | 294 | 0.0 | 1.6 | 0.00 | 0.00 | 0.00 | 89 | 1021.2 |
| 20260508200807 | 8 | 294 | 0.0 | 1.6 | 0.00 | 0.00 | 0.00 | 89 | 1021.1 |
| 20260508200651 | 8 | 294 | 0.0 | 1.6 | 0.00 | 0.00 | 0.00 | 89 | 1021.2 |
| 20260508200547 | 8 | 294 | 0.0 | 1.6 | 0.00 | 0.00 | 0.00 | 89 | 1021.2 |
| 20260508200449 | 8 | 294 | 0.0 | 1.6 | 0.00 | 0.00 | 0.00 | 89 | 1021.1 |
| 20260508200340 | 8 | 294 | 0.0 | 1.6 | 0.00 | 0.00 | 0.00 | 89 | 1021.1 |
| 20260508200228 | 8 | 294 | 0.0 | 1.6 | 0.00 | 0.00 | 0.00 | 89 | 1021.1 |
| 20260508200119 | 8 | 294 | 0.0 | 3.2 | 0.00 | 0.00 | 0.00 | 89 | 1021.1 |
| 20260508200010 | 8 | 294 | 0.0 | 3.2 | 0.00 | 0.00 | 0.00 | 89 | 1021.2 |
| 20260508195858 | 8 | 294 | 0.0 | 4.8 | 0.00 | 0.00 | 0.00 | 89 | 1021.1 |
| 20260508195759 | 8 | 294 | 1.6 | 4.8 | 0.00 | 0.00 | 0.00 | 89 | 1021.0 |
| 20260508195654 | 8 | 294 | 1.6 | 4.8 | 0.00 | 0.00 | 0.00 | 89 | 1021.2 |
| 20260508195553 | 8 | 294 | 1.6 | 4.8 | 0.00 | 0.00 | 0.00 | 89 | 1021.1 |
| 20260508195451 | 8 | 294 | 1.6 | 4.8 | 0.00 | 0.00 | 0.00 | 89 | 1021.1 |
| 20260508195348 | 8 | 294 | 1.6 | 4.8 | 0.00 | 0.00 | 0.00 | 89 | 1021.2 |
| 20260508195250 | 8 | 294 | 1.6 | 4.8 | 0.00 | 0.00 | 0.00 | 89 | 1021.0 |
| 20260508195142 | 8 | 294 | 1.6 | 4.8 | 0.00 | 0.00 | 0.00 | 89 | 1021.0 |
| 20260508195041 | 8 | 55 | 1.6 | 4.8 | 0.00 | 0.00 | 0.00 | 89 | 1020.9 |
| 20260508194942 | 8 | 190 | 1.6 | 3.2 | 0.00 | 0.00 | 0.00 | 89 | 1020.9 |
| 20260508194839 | 8 | 190 | 1.6 | 3.2 | 0.00 | 0.00 | 0.00 | 89 | 1020.9 |
| 20260508194746 | 8 | 190 | 0.0 | 3.2 | 0.00 | 0.00 | 0.00 | 89 | 1020.9 |
| 20260508194628 | 8 | 190 | 0.0 | 3.2 | 0.00 | 0.00 | 0.00 | 89 | 1020.8 |
| 20260508194518 | 8 | 190 | 0.0 | 3.2 | 0.00 | 0.00 | 0.00 | 89 | 1020.9 |
| 20260508194409 | 8 | 190 | 0.0 | 3.2 | 0.00 | 0.00 | 0.00 | 88 | 1020.7 |
| 20260508194259 | 8 | 190 | 0.0 | 3.2 | 0.00 | 0.00 | 0.00 | 88 | 1020.7 |
| 20260508194149 | 8 | 109 | 0.0 | 3.2 | 0.00 | 0.00 | 0.00 | 88 | 1020.7 |
| 20260508194039 | 8 | 182 | 0.0 | 0.0 | 0.00 | 0.00 | 0.00 | 88 | 1020.7 |
| 20260508193959 | 8 | 182 | 0.0 | 0.0 | 0.00 | 0.00 | 0.00 | 88 | 1020.7 |
| 20260508193819 | 8 | 182 | 0.0 | 0.0 | 0.00 | 0.00 | 0.00 | 88 | 1020.7 |
| 20260508193717 | 8 | 182 | 0.0 | 0.0 | 0.00 | 0.00 | 0.00 | 88 | 1020.7 |
| 20260508193614 | 8 | 182 | 0.0 | 1.6 | 0.00 | 0.00 | 0.00 | 88 | 1020.8 |
| 20260508193513 | 8 | 182 | 0.0 | 1.6 | 0.00 | 0.00 | 0.00 | 88 | 1020.8 |
| 20260508193409 | 8 | 182 | 0.0 | 1.6 | 0.00 | 0.00 | 0.00 | 88 | 1020.7 |
| 20260508193310 | 8 | 182 | 0.0 | 1.6 | 0.00 | 0.00 | 0.00 | 88 | 1020.8 |
| 20260508193159 | 8 | 182 | 0.0 | 1.6 | 0.00 | 0.00 | 0.00 | 88 | 1020.8 |
| 20260508193049 | 8 | 182 | 0.0 | 1.6 | 0.00 | 0.00 | 0.00 | 88 | 1020.7 |
| 20260508192940 | 8 | 182 | 0.0 | 1.6 | 0.00 | 0.00 | 0.00 | 88 | 1020.7 |
| 20260508192831 | 8 | 182 | 0.0 | 1.6 | 0.00 | 0.00 | 0.00 | 88 | 1020.7 |
| 20260508192722 | 8 | 182 | 0.0 | 1.6 | 0.00 | 0.00 | 0.00 | 88 | 1020.6 |
| 20260508192609 | 8 | 182 | 0.0 | 0.0 | 0.00 | 0.00 | 0.00 | 88 | 1020.6 |
| 20260508192458 | 8 | 182 | 0.0 | 0.0 | 0.00 | 0.00 | 0.00 | 88 | 1020.6 |
| 20260508192239 | 8 | 182 | 0.0 | 0.0 | 0.00 | 0.00 | 0.00 | 88 | 1020.7 |
| 20260508192129 | 8 | 182 | 0.0 | 0.0 | 0.00 | 0.00 | 0.00 | 88 | 1020.7 |
| 20260508192027 | 8 | 182 | 0.0 | 0.0 | 0.00 | 0.00 | 0.00 | 88 | 1020.7 |
| 20260508191923 | 8 | 182 | 0.0 | 0.0 | 0.00 | 0.00 | 0.00 | 88 | 1020.6 |
| 20260508191824 | 8 | 182 | 0.0 | 0.0 | 0.00 | 0.00 | 0.00 | 88 | 1020.6 |
| 20260508191716 | 8 | 182 | 0.0 | 0.0 | 0.00 | 0.00 | 0.00 | 88 | 1020.6 |
| 20260508191610 | 8 | 182 | 0.0 | 0.0 | 0.00 | 0.00 | 0.00 | 88 | 1020.5 |
| 20260508191511 | 8 | 182 | 0.0 | 0.0 | 0.00 | 0.00 | 0.00 | 88 | 1020.5 |
| 20260508191401 | 8 | 182 | 0.0 | 0.0 | 0.00 | 0.00 | 0.00 | 88 | 1020.6 |
| 20260508191258 | 8 | 182 | 0.0 | 0.0 | 0.00 | 0.00 | 0.00 | 88 | 1020.5 |
| 20260508191155 | 8 | 182 | 0.0 | 0.0 | 0.00 | 0.00 | 0.00 | 88 | 1020.5 |
| 20260508191055 | 8 | 182 | 0.0 | 0.0 | 0.00 | 0.00 | 0.00 | 88 | 1020.5 |
| 20260508190946 | 8 | 182 | 0.0 | 0.0 | 0.00 | 0.00 | 0.00 | 88 | 1020.5 |
| 20260508190835 | 8 | 182 | 0.0 | 0.0 | 0.00 | 0.00 | 0.00 | 88 | 1020.4 |
| 20260508190726 | 8 | 182 | 0.0 | 0.0 | 0.00 | 0.00 | 0.00 | 88 | 1020.6 |
| 20260508190619 | 8 | 182 | 0.0 | 0.0 | 0.00 | 0.00 | 0.00 | 88 | 1020.5 |
| 20260508190505 | 8 | 182 | 0.0 | 0.0 | 0.00 | 0.00 | 0.00 | 88 | 1020.6 |
| 20260508190355 | 8 | 182 | 0.0 | 0.0 | 0.00 | 0.00 | 0.00 | 88 | 1020.5 |
| 20260508190252 | 8 | 182 | 0.0 | 0.0 | 0.00 | 0.00 | 0.00 | 88 | 1020.5 |
| 20260508190153 | 8 | 182 | 0.0 | 0.0 | 0.00 | 0.00 | 0.00 | 88 | 1020.7 |
| 20260508190043 | 8 | 182 | 0.0 | 0.0 | 0.00 | 0.00 | 0.00 | 88 | 1020.7 |
| 20260508185933 | 8 | 182 | 0.0 | 0.0 | 0.00 | 0.00 | 0.00 | 88 | 1020.6 |
| 20260508185822 | 8 | 182 | 0.0 | 0.0 | 0.00 | 0.00 | 0.00 | 88 | 1020.6 |
| 20260508185714 | 8 | 182 | 0.0 | 0.0 | 0.00 | 0.00 | 0.00 | 88 | 1020.7 |
| 20260508185452 | 8 | 182 | 0.0 | 0.0 | 0.00 | 0.00 | 0.00 | 88 | 1020.6 |
| 20260508185247 | 8 | 182 | 0.0 | 0.0 | 0.00 | 0.00 | 0.00 | 88 | 1020.6 |
| 20260508185147 | 8 | 182 | 0.0 | 0.0 | 0.00 | 0.00 | 0.00 | 88 | 1020.7 |
| 20260508185041 | 8 | 182 | 0.0 | 0.0 | 0.00 | 0.00 | 0.00 | 88 | 1020.7 |
| 20260508184927 | 8 | 182 | 0.0 | 0.0 | 0.00 | 0.00 | 0.00 | 88 | 1020.6 |
| 20260508184817 | 8 | 182 | 0.0 | 0.0 | 0.00 | 0.00 | 0.00 | 88 | 1020.5 |
| 20260508184715 | 8 | 182 | 0.0 | 0.0 | 0.00 | 0.00 | 0.00 | 88 | 1020.5 |
| 20260508184615 | 8 | 182 | 0.0 | 0.0 | 0.00 | 0.00 | 0.00 | 88 | 1020.5 |
| 20260508184505 | 8 | 182 | 0.0 | 0.0 | 0.00 | 0.00 | 0.00 | 88 | 1020.6 |
| 20260508184356 | 8 | 182 | 0.0 | 0.0 | 0.00 | 0.00 | 0.00 | 88 | 1020.4 |
| 20260508184224 | 8 | 182 | 0.0 | 0.0 | 0.00 | 0.00 | 0.00 | 88 | 1020.6 |
| 20260508184125 | 8 | 182 | 0.0 | 0.0 | 0.00 | 0.00 | 0.00 | 88 | 1020.4 |
| 20260508184023 | 8 | 182 | 0.0 | 0.0 | 0.00 | 0.00 | 0.00 | 88 | 1020.5 |
| 20260508183930 | 8 | 182 | 0.0 | 0.0 | 0.00 | 0.00 | 0.00 | 88 | 1020.5 |
| 20260508183751 | 8 | 182 | 0.0 | 0.0 | 0.00 | 0.00 | 0.00 | 88 | 1020.5 |
| 20260508183642 | 7 | 182 | 0.0 | 0.0 | 0.00 | 0.00 | 0.00 | 88 | 1020.5 |
| 20260508183531 | 8 | 182 | 0.0 | 0.0 | 0.00 | 0.00 | 0.00 | 88 | 1020.6 |
| 20260508183422 | 7 | 182 | 0.0 | 0.0 | 0.00 | 0.00 | 0.00 | 88 | 1020.4 |
| 20260508183311 | 7 | 182 | 0.0 | 0.0 | 0.00 | 0.00 | 0.00 | 88 | 1020.4 |
| 20260508183206 | 7 | 182 | 0.0 | 0.0 | 0.00 | 0.00 | 0.00 | 88 | 1020.4 |
| 20260508183109 | 8 | 182 | 0.0 | 0.0 | 0.00 | 0.00 | 0.00 | 88 | 1020.4 |
| 20260508183002 | 7 | 182 | 0.0 | 0.0 | 0.00 | 0.00 | 0.00 | 88 | 1020.4 |
| 20260508182848 | 7 | 182 | 0.0 | 0.0 | 0.00 | 0.00 | 0.00 | 88 | 1020.3 |
| 20260508182739 | 7 | 182 | 0.0 | 0.0 | 0.00 | 0.00 | 0.00 | 88 | 1020.2 |
| 20260508182635 | 7 | 182 | 0.0 | 0.0 | 0.00 | 0.00 | 0.00 | 88 | 1020.4 |
| 20260508182533 | 7 | 182 | 0.0 | 0.0 | 0.00 | 0.00 | 0.00 | 88 | 1020.4 |
| 20260508182437 | 7 | 182 | 0.0 | 0.0 | 0.00 | 0.00 | 0.00 | 88 | 1020.4 |
| 20260508182332 | 7 | 182 | 0.0 | 1.6 | 0.00 | 0.00 | 0.00 | 88 | 1020.4 |
| 20260508182215 | 7 | 182 | 0.0 | 3.2 | 0.00 | 0.00 | 0.00 | 88 | 1020.4 |
| 20260508182102 | 7 | 182 | 0.0 | 3.2 | 0.00 | 0.00 | 0.00 | 87 | 1020.4 |
| 20260508181952 | 7 | 182 | 0.0 | 3.2 | 0.00 | 0.00 | 0.00 | 87 | 1020.5 |
| 20260508181843 | 7 | 182 | 0.0 | 3.2 | 0.00 | 0.00 | 0.00 | 87 | 1020.4 |
| 20260508181733 | 7 | 182 | 0.0 | 3.2 | 0.00 | 0.00 | 0.00 | 87 | 1020.4 |
| 20260508181628 | 7 | 182 | 0.0 | 3.2 | 0.00 | 0.00 | 0.00 | 87 | 1020.4 |
| 20260508181531 | 7 | 182 | 0.0 | 3.2 | 0.00 | 0.00 | 0.00 | 87 | 1020.4 |
| 20260508181424 | 7 | 182 | 0.0 | 3.2 | 0.00 | 0.00 | 0.00 | 87 | 1020.4 |
| 20260508181311 | 7 | 182 | 0.0 | 1.6 | 0.00 | 0.00 | 0.00 | 87 | 1020.4 |
| 20260508181202 | 7 | 182 | 0.0 | 0.0 | 0.00 | 0.00 | 0.00 | 87 | 1020.3 |
| 20260508181051 | 7 | 182 | 0.0 | 0.0 | 0.00 | 0.00 | 0.00 | 87 | 1020.3 |
| 20260508180941 | 7 | 182 | 0.0 | 0.0 | 0.00 | 0.00 | 0.00 | 87 | 1020.3 |
| 20260508180831 | 7 | 182 | 0.0 | 0.0 | 0.00 | 0.00 | 0.00 | 87 | 1020.3 |
| 20260508180721 | 7 | 182 | 0.0 | 0.0 | 0.00 | 0.00 | 0.00 | 87 | 1020.3 |
| 20260508180612 | 7 | 182 | 0.0 | 0.0 | 0.00 | 0.00 | 0.00 | 87 | 1020.4 |
| 20260508180501 | 7 | 182 | 0.0 | 0.0 | 0.00 | 0.00 | 0.00 | 87 | 1020.5 |
| 20260508180354 | 7 | 182 | 0.0 | 0.0 | 0.00 | 0.00 | 0.00 | 87 | 1020.3 |
| 20260508180242 | 7 | 182 | 0.0 | 0.0 | 0.00 | 0.00 | 0.00 | 87 | 1020.4 |
| 20260508180132 | 7 | 182 | 0.0 | 0.0 | 0.00 | 0.00 | 0.00 | 87 | 1020.3 |
| 20260508180031 | 7 | 182 | 0.0 | 0.0 | 0.00 | 0.00 | 0.00 | 87 | 1020.4 |
| 20260508175931 | 7 | 182 | 0.0 | 0.0 | 0.00 | 0.00 | 0.00 | 87 | 1020.4 |
| 20260508175824 | 7 | 182 | 0.0 | 0.0 | 0.00 | 0.00 | 0.00 | 87 | 1020.5 |
| 20260508175713 | 7 | 182 | 0.0 | 0.0 | 0.00 | 0.00 | 0.00 | 87 | 1020.6 |
| 20260508175606 | 7 | 182 | 0.0 | 0.0 | 0.00 | 0.00 | 0.00 | 87 | 1020.5 |
| 20260508175453 | 7 | 182 | 0.0 | 0.0 | 0.00 | 0.00 | 0.00 | 87 | 1020.6 |
| 20260508175346 | 7 | 182 | 0.0 | 0.0 | 0.00 | 0.00 | 0.00 | 87 | 1020.5 |
| 20260508175232 | 7 | 182 | 0.0 | 0.0 | 0.00 | 0.00 | 0.00 | 87 | 1020.5 |
| 20260508175123 | 7 | 182 | 0.0 | 0.0 | 0.00 | 0.00 | 0.00 | 87 | 1020.5 |
| 20260508175013 | 7 | 182 | 0.0 | 0.0 | 0.00 | 0.00 | 0.00 | 87 | 1020.6 |
| 20260508174905 | 7 | 182 | 0.0 | 0.0 | 0.00 | 0.00 | 0.00 | 87 | 1020.6 |
| 20260508174755 | 7 | 182 | 0.0 | 0.0 | 0.00 | 0.00 | 0.00 | 87 | 1020.4 |
| 20260508174652 | 7 | 182 | 0.0 | 0.0 | 0.00 | 0.00 | 0.00 | 87 | 1020.5 |
| 20260508174549 | 7 | 182 | 0.0 | 0.0 | 0.00 | 0.00 | 0.00 | 87 | 1020.4 |
| 20260508174450 | 7 | 182 | 0.0 | 0.0 | 0.00 | 0.00 | 0.00 | 87 | 1020.4 |
| 20260508174339 | 7 | 182 | 0.0 | 0.0 | 0.00 | 0.00 | 0.00 | 87 | 1020.4 |
| 20260508174227 | 7 | 182 | 0.0 | 0.0 | 0.00 | 0.00 | 0.00 | 87 | 1020.5 |
| 20260508174117 | 7 | 182 | 0.0 | 0.0 | 0.00 | 0.00 | 0.00 | 87 | 1020.5 |
| 20260508174008 | 7 | 182 | 0.0 | 0.0 | 0.00 | 0.00 | 0.00 | 87 | 1020.6 |
| 20260508173900 | 7 | 182 | 0.0 | 0.0 | 0.00 | 0.00 | 0.00 | 87 | 1020.5 |
| 20260508173641 | 7 | 182 | 0.0 | 0.0 | 0.00 | 0.00 | 0.00 | 87 | 1020.4 |
| 20260508173540 | 7 | 182 | 0.0 | 0.0 | 0.00 | 0.00 | 0.00 | 87 | 1020.4 |
| 20260508173436 | 7 | 182 | 0.0 | 0.0 | 0.00 | 0.00 | 0.00 | 87 | 1020.6 |
| 20260508173332 | 7 | 182 | 0.0 | 0.0 | 0.00 | 0.00 | 0.00 | 87 | 1020.5 |
| 20260508173231 | 7 | 182 | 0.0 | 0.0 | 0.00 | 0.00 | 0.00 | 87 | 1020.5 |
| 20260508173122 | 7 | 182 | 0.0 | 0.0 | 0.00 | 0.00 | 0.00 | 87 | 1020.4 |
| 20260508173013 | 7 | 182 | 0.0 | 0.0 | 0.00 | 0.00 | 0.00 | 87 | 1020.4 |
| 20260508172909 | 7 | 182 | 0.0 | 0.0 | 0.00 | 0.00 | 0.00 | 87 | 1020.4 |
| 20260508172814 | 7 | 182 | 0.0 | 0.0 | 0.00 | 0.00 | 0.00 | 87 | 1020.4 |
| 20260508172703 | 7 | 182 | 0.0 | 0.0 | 0.00 | 0.00 | 0.00 | 87 | 1020.3 |
| 20260508172556 | 7 | 182 | 0.0 | 0.0 | 0.00 | 0.00 | 0.00 | 87 | 1020.3 |
| 20260508172445 | 7 | 182 | 0.0 | 0.0 | 0.00 | 0.00 | 0.00 | 87 | 1020.3 |
| 20260508172338 | 7 | 182 | 0.0 | 0.0 | 0.00 | 0.00 | 0.00 | 86 | 1020.2 |
| 20260508172124 | 7 | 182 | 0.0 | 0.0 | 0.00 | 0.00 | 0.00 | 86 | 1020.1 |
| 20260508172016 | 7 | 182 | 0.0 | 0.0 | 0.00 | 0.00 | 0.00 | 86 | 1020.2 |
| 20260508171907 | 7 | 182 | 0.0 | 0.0 | 0.00 | 0.00 | 0.00 | 86 | 1020.2 |
| 20260508171801 | 7 | 182 | 0.0 | 0.0 | 0.00 | 0.00 | 0.00 | 86 | 1020.2 |
| 20260508171650 | 7 | 182 | 0.0 | 0.0 | 0.00 | 0.00 | 0.00 | 86 | 1020.0 |
| 20260508171542 | 7 | 182 | 0.0 | 0.0 | 0.00 | 0.00 | 0.00 | 86 | 1020.2 |
| 20260508171436 | 7 | 182 | 0.0 | 0.0 | 0.00 | 0.00 | 0.00 | 86 | 1020.0 |
| 20260508171337 | 7 | 182 | 0.0 | 0.0 | 0.00 | 0.00 | 0.00 | 86 | 1020.0 |
| 20260508171239 | 7 | 182 | 0.0 | 0.0 | 0.00 | 0.00 | 0.00 | 86 | 1020.0 |
| 20260508171127 | 7 | 182 | 0.0 | 0.0 | 0.00 | 0.00 | 0.00 | 86 | 1020.0 |
| 20260508171022 | 7 | 182 | 0.0 | 0.0 | 0.00 | 0.00 | 0.00 | 86 | 1020.0 |
| 20260508170914 | 7 | 182 | 0.0 | 0.0 | 0.00 | 0.00 | 0.00 | 86 | 1020.0 |
| 20260508170831 | 7 | 182 | 0.0 | 0.0 | 0.00 | 0.00 | 0.00 | 86 | 1020.1 |
| 20260508170657 | 7 | 182 | 0.0 | 0.0 | 0.00 | 0.00 | 0.00 | 86 | 1020.0 |
| 20260508170549 | 7 | 182 | 0.0 | 0.0 | 0.00 | 0.00 | 0.00 | 86 | 1020.1 |
| 20260508170438 | 7 | 182 | 0.0 | 0.0 | 0.00 | 0.00 | 0.00 | 86 | 1020.0 |
| 20260508170331 | 7 | 182 | 0.0 | 0.0 | 0.00 | 0.00 | 0.00 | 86 | 1020.0 |
| 20260508170224 | 7 | 182 | 0.0 | 0.0 | 0.00 | 0.00 | 0.00 | 86 | 1020.0 |
| 20260508170119 | 7 | 182 | 0.0 | 0.0 | 0.00 | 0.00 | 0.00 | 86 | 1020.0 |
| 20260508170017 | 7 | 182 | 0.0 | 0.0 | 0.00 | 0.00 | 0.00 | 86 | 1019.9 |
| 20260508165917 | 7 | 182 | 0.0 | 0.0 | 0.00 | 0.00 | 0.00 | 86 | 1019.9 |
| 20260508165815 | 7 | 182 | 0.0 | 0.0 | 0.00 | 0.00 | 0.00 | 86 | 1019.9 |
| 20260508165713 | 7 | 182 | 0.0 | 0.0 | 0.00 | 0.00 | 0.00 | 86 | 1019.9 |
| 20260508165606 | 7 | 182 | 0.0 | 0.0 | 0.00 | 0.00 | 0.00 | 86 | 1019.9 |
| 20260508165459 | 7 | 182 | 0.0 | 0.0 | 0.00 | 0.00 | 0.00 | 86 | 1019.9 |
| 20260508165354 | 7 | 182 | 0.0 | 0.0 | 0.00 | 0.00 | 0.00 | 86 | 1019.9 |
| 20260508165245 | 7 | 182 | 0.0 | 0.0 | 0.00 | 0.00 | 0.00 | 86 | 1019.9 |
| 20260508165138 | 7 | 182 | 0.0 | 0.0 | 0.00 | 0.00 | 0.00 | 86 | 1020.1 |
| 20260508165029 | 7 | 182 | 0.0 | 0.0 | 0.00 | 0.00 | 0.00 | 86 | 1019.9 |
| 20260508164921 | 7 | 182 | 0.0 | 0.0 | 0.00 | 0.00 | 0.00 | 86 | 1020.0 |
| 20260508164812 | 7 | 182 | 0.0 | 0.0 | 0.00 | 0.00 | 0.00 | 86 | 1020.0 |
| 20260508164717 | 7 | 182 | 0.0 | 0.0 | 0.00 | 0.00 | 0.00 | 86 | 1019.9 |
| 20260508164614 | 7 | 182 | 0.0 | 0.0 | 0.00 | 0.00 | 0.00 | 86 | 1020.0 |
| 20260508164513 | 7 | 182 | 0.0 | 0.0 | 0.00 | 0.00 | 0.00 | 86 | 1020.0 |
| 20260508164411 | 7 | 182 | 0.0 | 0.0 | 0.00 | 0.00 | 0.00 | 86 | 1020.0 |
| 20260508164311 | 7 | 182 | 0.0 | 0.0 | 0.00 | 0.00 | 0.00 | 86 | 1020.1 |
| 20260508164216 | 7 | 182 | 0.0 | 0.0 | 0.00 | 0.00 | 0.00 | 86 | 1020.1 |
| 20260508164109 | 7 | 182 | 0.0 | 0.0 | 0.00 | 0.00 | 0.00 | 86 | 1020.0 |
| 20260508164000 | 7 | 182 | 0.0 | 0.0 | 0.00 | 0.00 | 0.00 | 86 | 1019.9 |
| 20260508163850 | 7 | 182 | 0.0 | 0.0 | 0.00 | 0.00 | 0.00 | 86 | 1020.0 |
| 20260508163741 | 7 | 182 | 0.0 | 0.0 | 0.00 | 0.00 | 0.00 | 86 | 1020.0 |
| 20260508163632 | 7 | 182 | 0.0 | 0.0 | 0.00 | 0.00 | 0.00 | 86 | 1020.0 |
| 20260508163527 | 7 | 182 | 0.0 | 0.0 | 0.00 | 0.00 | 0.00 | 85 | 1020.1 |
| 20260508163412 | 7 | 182 | 0.0 | 0.0 | 0.00 | 0.00 | 0.00 | 86 | 1020.1 |
| 20260508163303 | 7 | 182 | 0.0 | 0.0 | 0.00 | 0.00 | 0.00 | 86 | 1020.1 |
| 20260508163156 | 7 | 182 | 0.0 | 0.0 | 0.00 | 0.00 | 0.00 | 85 | 1020.1 |
| 20260508163054 | 7 | 182 | 0.0 | 0.0 | 0.00 | 0.00 | 0.00 | 85 | 1020.0 |
| 20260508162952 | 7 | 182 | 0.0 | 0.0 | 0.00 | 0.00 | 0.00 | 85 | 1020.1 |
| 20260508162850 | 7 | 182 | 0.0 | 0.0 | 0.00 | 0.00 | 0.00 | 85 | 1020.0 |
| 20260508162741 | 7 | 182 | 0.0 | 0.0 | 0.00 | 0.00 | 0.00 | 85 | 1020.1 |
| 20260508162639 | 7 | 182 | 0.0 | 0.0 | 0.00 | 0.00 | 0.00 | 85 | 1020.0 |
| 20260508162539 | 7 | 182 | 0.0 | 0.0 | 0.00 | 0.00 | 0.00 | 85 | 1020.0 |
| 20260508162432 | 7 | 182 | 0.0 | 0.0 | 0.00 | 0.00 | 0.00 | 85 | 1020.1 |
| 20260508162321 | 7 | 182 | 0.0 | 0.0 | 0.00 | 0.00 | 0.00 | 85 | 1020.0 |
| 20260508162101 | 7 | 182 | 0.0 | 0.0 | 0.00 | 0.00 | 0.00 | 85 | 1020.0 |
| 20260508161957 | 7 | 182 | 0.0 | 0.0 | 0.00 | 0.00 | 0.00 | 85 | 1020.1 |
| 20260508161857 | 7 | 182 | 0.0 | 0.0 | 0.00 | 0.00 | 0.00 | 85 | 1020.0 |
| 20260508161754 | 7 | 182 | 0.0 | 0.0 | 0.00 | 0.00 | 0.00 | 85 | 1020.0 |
| 20260508161647 | 7 | 182 | 0.0 | 0.0 | 0.00 | 0.00 | 0.00 | 85 | 1020.0 |
| 20260508161533 | 7 | 182 | 0.0 | 0.0 | 0.00 | 0.00 | 0.00 | 85 | 1020.0 |
| 20260508161422 | 7 | 182 | 0.0 | 0.0 | 0.00 | 0.00 | 0.00 | 85 | 1020.1 |
| 20260508161312 | 7 | 182 | 0.0 | 0.0 | 0.00 | 0.00 | 0.00 | 85 | 1020.0 |
| 20260508161204 | 7 | 182 | 0.0 | 0.0 | 0.00 | 0.00 | 0.00 | 85 | 1020.0 |
| 20260508161104 | 7 | 182 | 0.0 | 0.0 | 0.00 | 0.00 | 0.00 | 85 | 1020.0 |
| 20260508161003 | 7 | 182 | 0.0 | 0.0 | 0.00 | 0.00 | 0.00 | 85 | 1020.0 |
| 20260508160902 | 7 | 182 | 0.0 | 0.0 | 0.00 | 0.00 | 0.00 | 85 | 1020.0 |
| 20260508160804 | 7 | 182 | 0.0 | 0.0 | 0.00 | 0.00 | 0.00 | 85 | 1020.1 |
| 20260508160659 | 7 | 182 | 0.0 | 0.0 | 0.00 | 0.00 | 0.00 | 85 | 1020.2 |
| 20260508160544 | 7 | 182 | 0.0 | 3.2 | 0.00 | 0.00 | 0.00 | 85 | 1020.1 |
| 20260508160435 | 7 | 182 | 0.0 | 3.2 | 0.00 | 0.00 | 0.00 | 85 | 1020.1 |
| 20260508160325 | 8 | 182 | 0.0 | 3.2 | 0.00 | 0.00 | 0.00 | 85 | 1020.2 |
| 20260508160214 | 7 | 182 | 0.0 | 3.2 | 0.00 | 0.00 | 0.00 | 85 | 1020.2 |
| 20260508160116 | 7 | 182 | 0.0 | 3.2 | 0.00 | 0.00 | 0.00 | 85 | 1020.2 |
| 20260508160011 | 7 | 182 | 0.0 | 3.2 | 0.00 | 0.00 | 0.00 | 85 | 1020.3 |
| 20260508155910 | 7 | 182 | 0.0 | 3.2 | 0.00 | 0.00 | 0.00 | 85 | 1020.2 |
| 20260508155805 | 7 | 182 | 0.0 | 3.2 | 0.00 | 0.00 | 0.00 | 85 | 1020.2 |
| 20260508155705 | 8 | 182 | 0.0 | 3.2 | 0.00 | 0.00 | 0.00 | 85 | 1020.3 |
| 20260508155604 | 8 | 182 | 0.0 | 3.2 | 0.00 | 0.00 | 0.00 | 85 | 1020.3 |
| 20260508155453 | 8 | 182 | 0.0 | 3.2 | 0.00 | 0.00 | 0.00 | 85 | 1020.2 |
| 20260508155353 | 8 | 182 | 0.0 | 0.0 | 0.00 | 0.00 | 0.00 | 85 | 1020.3 |
| 20260508155250 | 8 | 182 | 0.0 | 0.0 | 0.00 | 0.00 | 0.00 | 85 | 1020.2 |
| 20260508155046 | 8 | 182 | 0.0 | 0.0 | 0.00 | 0.00 | 0.00 | 85 | 1020.2 |
| 20260508154944 | 8 | 182 | 0.0 | 0.0 | 0.00 | 0.00 | 0.00 | 85 | 1020.2 |
| 20260508154840 | 8 | 182 | 0.0 | 0.0 | 0.00 | 0.00 | 0.00 | 85 | 1020.2 |
| 20260508154720 | 8 | 182 | 0.0 | 0.0 | 0.00 | 0.00 | 0.00 | 85 | 1020.2 |
| 20260508154613 | 8 | 182 | 0.0 | 0.0 | 0.00 | 0.00 | 0.00 | 85 | 1020.2 |
| 20260508154501 | 8 | 182 | 0.0 | 0.0 | 0.00 | 0.00 | 0.00 | 85 | 1020.3 |
| 20260508154355 | 8 | 182 | 0.0 | 0.0 | 0.00 | 0.00 | 0.00 | 85 | 1020.2 |
| 20260508154256 | 8 | 182 | 0.0 | 0.0 | 0.00 | 0.00 | 0.00 | 85 | 1020.2 |
| 20260508154154 | 8 | 182 | 0.0 | 0.0 | 0.00 | 0.00 | 0.00 | 85 | 1020.2 |
| 20260508154055 | 8 | 182 | 0.0 | 0.0 | 0.00 | 0.00 | 0.00 | 85 | 1020.2 |
| 20260508153953 | 8 | 182 | 0.0 | 0.0 | 0.00 | 0.00 | 0.00 | 85 | 1020.1 |
| 20260508153850 | 8 | 182 | 0.0 | 0.0 | 0.00 | 0.00 | 0.00 | 85 | 1020.0 |
| 20260508153746 | 8 | 182 | 0.0 | 0.0 | 0.00 | 0.00 | 0.00 | 84 | 1020.0 |
| 20260508153540 | 8 | 182 | 0.0 | 0.0 | 0.00 | 0.00 | 0.00 | 84 | 1019.9 |
| 20260508153428 | 8 | 182 | 0.0 | 0.0 | 0.00 | 0.00 | 0.00 | 84 | 1020.0 |
| 20260508153318 | 8 | 182 | 0.0 | 0.0 | 0.00 | 0.00 | 0.00 | 84 | 1020.0 |
| 20260508153219 | 8 | 182 | 0.0 | 0.0 | 0.00 | 0.00 | 0.00 | 84 | 1020.0 |
| 20260508153120 | 8 | 182 | 0.0 | 0.0 | 0.00 | 0.00 | 0.00 | 84 | 1019.9 |
| 20260508153011 | 8 | 182 | 0.0 | 0.0 | 0.00 | 0.00 | 0.00 | 85 | 1019.9 |
| 20260508152900 | 8 | 182 | 0.0 | 0.0 | 0.00 | 0.00 | 0.00 | 84 | 1020.0 |
| 20260508152639 | 8 | 182 | 0.0 | 0.0 | 0.00 | 0.00 | 0.00 | 84 | 1019.9 |
| 20260508152539 | 8 | 182 | 0.0 | 0.0 | 0.00 | 0.00 | 0.00 | 84 | 1019.9 |
| 20260508152437 | 8 | 182 | 0.0 | 0.0 | 0.00 | 0.00 | 0.00 | 84 | 1020.1 |
| 20260508152331 | 8 | 182 | 0.0 | 0.0 | 0.00 | 0.00 | 0.00 | 84 | 1020.0 |
| 20260508152225 | 8 | 182 | 0.0 | 0.0 | 0.00 | 0.00 | 0.00 | 84 | 1020.0 |
| 20260508152124 | 8 | 182 | 0.0 | 0.0 | 0.00 | 0.00 | 0.00 | 84 | 1020.0 |
| 20260508152026 | 8 | 182 | 0.0 | 0.0 | 0.00 | 0.00 | 0.00 | 84 | 1019.9 |
| 20260508151920 | 8 | 182 | 0.0 | 0.0 | 0.00 | 0.00 | 0.00 | 84 | 1019.9 |
| 20260508151816 | 8 | 182 | 0.0 | 0.0 | 0.00 | 0.00 | 0.00 | 84 | 1020.0 |
| 20260508151717 | 8 | 182 | 0.0 | 0.0 | 0.00 | 0.00 | 0.00 | 84 | 1020.0 |
| 20260508151606 | 8 | 182 | 0.0 | 0.0 | 0.00 | 0.00 | 0.00 | 84 | 1019.9 |
| 20260508151500 | 8 | 182 | 0.0 | 0.0 | 0.00 | 0.00 | 0.00 | 84 | 1019.9 |
| 20260508151346 | 8 | 182 | 0.0 | 0.0 | 0.00 | 0.00 | 0.00 | 84 | 1020.0 |
| 20260508151244 | 8 | 182 | 0.0 | 0.0 | 0.00 | 0.00 | 0.00 | 84 | 1020.0 |
| 20260508151140 | 8 | 182 | 0.0 | 0.0 | 0.00 | 0.00 | 0.00 | 84 | 1020.1 |
| 20260508151041 | 8 | 182 | 0.0 | 1.6 | 0.00 | 0.00 | 0.00 | 84 | 1020.0 |
| 20260508150938 | 8 | 182 | 0.0 | 1.6 | 0.00 | 0.00 | 0.00 | 84 | 1020.0 |
| 20260508150838 | 8 | 182 | 0.0 | 1.6 | 0.00 | 0.00 | 0.00 | 84 | 1020.2 |
| 20260508150734 | 8 | 182 | 0.0 | 1.6 | 0.00 | 0.00 | 0.00 | 84 | 1020.1 |
| 20260508150617 | 8 | 182 | 0.0 | 1.6 | 0.00 | 0.00 | 0.00 | 84 | 1020.0 |
| 20260508150508 | 8 | 182 | 0.0 | 1.6 | 0.00 | 0.00 | 0.00 | 84 | 1020.2 |
| 20260508150403 | 8 | 182 | 0.0 | 1.6 | 0.00 | 0.00 | 0.00 | 84 | 1020.1 |
| 20260508150247 | 8 | 182 | 0.0 | 1.6 | 0.00 | 0.00 | 0.00 | 84 | 1020.1 |
| 20260508150138 | 8 | 182 | 0.0 | 1.6 | 0.00 | 0.00 | 0.00 | 84 | 1020.0 |
| 20260508150029 | 8 | 182 | 0.0 | 0.0 | 0.00 | 0.00 | 0.00 | 84 | 1020.0 |
| 20260508145917 | 8 | 182 | 0.0 | 0.0 | 0.00 | 0.00 | 0.00 | 84 | 1020.0 |
| 20260508145811 | 8 | 182 | 0.0 | 0.0 | 0.00 | 0.00 | 0.00 | 84 | 1020.1 |
| 20260508145702 | 8 | 182 | 0.0 | 0.0 | 0.00 | 0.00 | 0.00 | 84 | 1020.0 |
| 20260508145552 | 8 | 182 | 0.0 | 0.0 | 0.00 | 0.00 | 0.00 | 84 | 1020.1 |
| 20260508145441 | 8 | 182 | 0.0 | 0.0 | 0.00 | 0.00 | 0.00 | 84 | 1020.1 |
| 20260508145349 | 8 | 182 | 0.0 | 0.0 | 0.00 | 0.00 | 0.00 | 84 | 1020.1 |
| 20260508145240 | 8 | 182 | 0.0 | 0.0 | 0.00 | 0.00 | 0.00 | 84 | 1020.0 |
| 20260508145028 | 8 | 182 | 0.0 | 0.0 | 0.00 | 0.00 | 0.00 | 83 | 1020.0 |
| 20260508144926 | 8 | 182 | 0.0 | 0.0 | 0.00 | 0.00 | 0.00 | 83 | 1020.0 |
| 20260508144832 | 8 | 182 | 0.0 | 0.0 | 0.00 | 0.00 | 0.00 | 83 | 1020.0 |
| 20260508144722 | 8 | 182 | 0.0 | 0.0 | 0.00 | 0.00 | 0.00 | 83 | 1020.0 |
| 20260508144618 | 8 | 182 | 0.0 | 0.0 | 0.00 | 0.00 | 0.00 | 83 | 1020.0 |
| 20260508144519 | 8 | 182 | 0.0 | 0.0 | 0.00 | 0.00 | 0.00 | 83 | 1020.2 |
| 20260508144408 | 8 | 182 | 0.0 | 0.0 | 0.00 | 0.00 | 0.00 | 83 | 1019.9 |
| 20260508144316 | 8 | 182 | 0.0 | 0.0 | 0.00 | 0.00 | 0.00 | 83 | 1020.0 |
| 20260508144152 | 8 | 182 | 0.0 | 0.0 | 0.00 | 0.00 | 0.00 | 83 | 1020.1 |
| 20260508144059 | 8 | 182 | 0.0 | 0.0 | 0.00 | 0.00 | 0.00 | 83 | 1020.0 |
| 20260508143953 | 8 | 182 | 0.0 | 0.0 | 0.00 | 0.00 | 0.00 | 83 | 1020.0 |
| 20260508143842 | 8 | 182 | 0.0 | 0.0 | 0.00 | 0.00 | 0.00 | 83 | 1020.0 |
| 20260508143748 | 8 | 182 | 0.0 | 0.0 | 0.00 | 0.00 | 0.00 | 83 | 1020.0 |
| 20260508143716 | 8 | 182 | 0.0 | 0.0 | 0.00 | 0.00 | 0.00 | 83 | 1020.0 |
| 20260508143502 | 8 | 182 | 0.0 | 0.0 | 0.00 | 0.00 | 0.00 | 83 | 1020.1 |
| 20260508143352 | 8 | 182 | 0.0 | 0.0 | 0.00 | 0.00 | 0.00 | 83 | 1020.0 |
| 20260508143246 | 8 | 182 | 0.0 | 0.0 | 0.00 | 0.00 | 0.00 | 83 | 1020.0 |
| 20260508143132 | 8 | 182 | 0.0 | 0.0 | 0.00 | 0.00 | 0.00 | 83 | 1019.9 |
| 20260508143021 | 8 | 182 | 0.0 | 1.6 | 0.00 | 0.00 | 0.00 | 83 | 1019.9 |
| 20260508142914 | 8 | 182 | 0.0 | 1.6 | 0.00 | 0.00 | 0.00 | 83 | 1020.0 |
| 20260508142802 | 8 | 182 | 0.0 | 1.6 | 0.00 | 0.00 | 0.00 | 83 | 1019.9 |
| 20260508142651 | 8 | 182 | 0.0 | 1.6 | 0.00 | 0.00 | 0.00 | 83 | 1020.0 |
| 20260508142542 | 8 | 182 | 0.0 | 1.6 | 0.00 | 0.00 | 0.00 | 83 | 1020.0 |
| 20260508142432 | 8 | 182 | 0.0 | 1.6 | 0.00 | 0.00 | 0.00 | 83 | 1020.0 |
| 20260508142331 | 8 | 182 | 0.0 | 1.6 | 0.00 | 0.00 | 0.00 | 83 | 1020.0 |
| 20260508142227 | 8 | 182 | 0.0 | 1.6 | 0.00 | 0.00 | 0.00 | 83 | 1020.0 |
| 20260508142126 | 8 | 182 | 0.0 | 1.6 | 0.00 | 0.00 | 0.00 | 83 | 1020.1 |
| 20260508142026 | 8 | 182 | 0.0 | 1.6 | 0.00 | 0.00 | 0.00 | 82 | 1020.0 |
| 20260508141924 | 8 | 182 | 0.0 | 0.0 | 0.00 | 0.00 | 0.00 | 82 | 1020.1 |
| 20260508141822 | 8 | 182 | 0.0 | 0.0 | 0.00 | 0.00 | 0.00 | 82 | 1020.1 |
| 20260508141725 | 8 | 182 | 0.0 | 0.0 | 0.00 | 0.00 | 0.00 | 82 | 1020.0 |
| 20260508141619 | 8 | 182 | 0.0 | 0.0 | 0.00 | 0.00 | 0.00 | 82 | 1020.2 |
| 20260508141515 | 8 | 182 | 0.0 | 0.0 | 0.00 | 0.00 | 0.00 | 82 | 1020.1 |
| 20260508141414 | 8 | 182 | 0.0 | 0.0 | 0.00 | 0.00 | 0.00 | 82 | 1020.1 |
| 20260508141312 | 8 | 182 | 0.0 | 0.0 | 0.00 | 0.00 | 0.00 | 82 | 1020.1 |
| 20260508141211 | 8 | 182 | 0.0 | 0.0 | 0.00 | 0.00 | 0.00 | 82 | 1020.1 |
| 20260508141106 | 8 | 182 | 0.0 | 0.0 | 0.00 | 0.00 | 0.00 | 82 | 1020.1 |
| 20260508141005 | 8 | 182 | 0.0 | 0.0 | 0.00 | 0.00 | 0.00 | 82 | 1020.1 |
| 20260508140858 | 8 | 182 | 0.0 | 0.0 | 0.00 | 0.00 | 0.00 | 81 | 1020.2 |
| 20260508140746 | 8 | 182 | 0.0 | 0.0 | 0.00 | 0.00 | 0.00 | 81 | 1020.1 |
| 20260508140644 | 8 | 182 | 0.0 | 0.0 | 0.00 | 0.00 | 0.00 | 81 | 1019.9 |
| 20260508140434 | 8 | 182 | 0.0 | 0.0 | 0.00 | 0.00 | 0.00 | 81 | 1020.1 |
| 20260508140324 | 8 | 182 | 0.0 | 0.0 | 0.00 | 0.00 | 0.00 | 81 | 1020.0 |
| 20260508140216 | 8 | 182 | 0.0 | 0.0 | 0.00 | 0.00 | 0.00 | 80 | 1020.1 |
| 20260508140114 | 8 | 182 | 0.0 | 0.0 | 0.00 | 0.00 | 0.00 | 80 | 1020.1 |
| 20260508135956 | 8 | 182 | 0.0 | 0.0 | 0.00 | 0.00 | 0.00 | 80 | 1020.1 |
| 20260508135855 | 8 | 182 | 0.0 | 0.0 | 0.00 | 0.00 | 0.00 | 81 | 1020.2 |
| 20260508135753 | 8 | 182 | 0.0 | 0.0 | 0.00 | 0.00 | 0.00 | 81 | 1020.0 |
| 20260508135650 | 8 | 182 | 0.0 | 0.0 | 0.00 | 0.00 | 0.00 | 81 | 1020.0 |
| 20260508135549 | 8 | 182 | 0.0 | 0.0 | 0.00 | 0.00 | 0.00 | 81 | 1020.0 |
| 20260508135447 | 8 | 182 | 0.0 | 0.0 | 0.00 | 0.00 | 0.00 | 81 | 1019.9 |
| 20260508135348 | 8 | 182 | 0.0 | 0.0 | 0.00 | 0.00 | 0.00 | 81 | 1020.0 |
| 20260508135242 | 8 | 182 | 0.0 | 0.0 | 0.00 | 0.00 | 0.00 | 80 | 1019.8 |
| 20260508135139 | 8 | 182 | 0.0 | 0.0 | 0.00 | 0.00 | 0.00 | 80 | 1019.9 |
| 20260508135037 | 8 | 182 | 0.0 | 0.0 | 0.00 | 0.00 | 0.00 | 81 | 1019.8 |
| 20260508134934 | 8 | 182 | 0.0 | 0.0 | 0.00 | 0.00 | 0.00 | 80 | 1019.8 |
| 20260508134833 | 8 | 182 | 0.0 | 0.0 | 0.00 | 0.00 | 0.00 | 80 | 1019.9 |
| 20260508134734 | 8 | 182 | 0.0 | 0.0 | 0.00 | 0.00 | 0.00 | 80 | 1019.8 |
| 20260508134627 | 8 | 182 | 0.0 | 0.0 | 0.00 | 0.00 | 0.00 | 80 | 1019.8 |
| 20260508134527 | 8 | 182 | 0.0 | 0.0 | 0.00 | 0.00 | 0.00 | 80 | 1019.7 |
| 20260508134423 | 8 | 182 | 0.0 | 0.0 | 0.00 | 0.00 | 0.00 | 80 | 1019.7 |
| 20260508134326 | 9 | 182 | 0.0 | 0.0 | 0.00 | 0.00 | 0.00 | 80 | 1019.7 |
| 20260508134222 | 9 | 182 | 0.0 | 0.0 | 0.00 | 0.00 | 0.00 | 80 | 1019.7 |
| 20260508134119 | 9 | 182 | 0.0 | 0.0 | 0.00 | 0.00 | 0.00 | 80 | 1019.7 |
| 20260508134021 | 9 | 182 | 0.0 | 0.0 | 0.00 | 0.00 | 0.00 | 80 | 1019.7 |
| 20260508133910 | 9 | 182 | 0.0 | 0.0 | 0.00 | 0.00 | 0.00 | 80 | 1019.7 |
| 20260508133803 | 9 | 182 | 0.0 | 0.0 | 0.00 | 0.00 | 0.00 | 80 | 1019.6 |
| 20260508133656 | 9 | 182 | 0.0 | 0.0 | 0.00 | 0.00 | 0.00 | 80 | 1019.6 |
| 20260508133548 | 9 | 182 | 0.0 | 0.0 | 0.00 | 0.00 | 0.00 | 80 | 1019.8 |
| 20260508133445 | 9 | 182 | 0.0 | 0.0 | 0.00 | 0.00 | 0.00 | 80 | 1019.7 |
| 20260508133347 | 9 | 182 | 0.0 | 0.0 | 0.00 | 0.00 | 0.00 | 79 | 1019.7 |
| 20260508133237 | 9 | 182 | 0.0 | 0.0 | 0.00 | 0.00 | 0.00 | 79 | 1019.7 |
| 20260508133128 | 9 | 182 | 0.0 | 0.0 | 0.00 | 0.00 | 0.00 | 79 | 1019.7 |
| 20260508133022 | 9 | 182 | 0.0 | 0.0 | 0.00 | 0.00 | 0.00 | 79 | 1019.7 |
| 20260508132920 | 9 | 182 | 0.0 | 0.0 | 0.00 | 0.00 | 0.00 | 79 | 1019.7 |
| 20260508132820 | 9 | 182 | 0.0 | 0.0 | 0.00 | 0.00 | 0.00 | 79 | 1019.6 |
| 20260508132711 | 9 | 182 | 0.0 | 0.0 | 0.00 | 0.00 | 0.00 | 79 | 1019.6 |
| 20260508132606 | 9 | 182 | 0.0 | 0.0 | 0.00 | 0.00 | 0.00 | 79 | 1019.7 |
| 20260508132458 | 9 | 182 | 0.0 | 0.0 | 0.00 | 0.00 | 0.00 | 79 | 1019.7 |
| 20260508132346 | 9 | 182 | 0.0 | 0.0 | 0.00 | 0.00 | 0.00 | 79 | 1019.6 |
| 20260508132243 | 9 | 182 | 0.0 | 0.0 | 0.00 | 0.00 | 0.00 | 79 | 1019.5 |
| 20260508132144 | 9 | 182 | 0.0 | 0.0 | 0.00 | 0.00 | 0.00 | 79 | 1019.6 |
| 20260508132040 | 9 | 182 | 0.0 | 0.0 | 0.00 | 0.00 | 0.00 | 79 | 1019.6 |
| 20260508131938 | 9 | 182 | 0.0 | 0.0 | 0.00 | 0.00 | 0.00 | 78 | 1019.6 |
| 20260508131838 | 9 | 182 | 0.0 | 0.0 | 0.00 | 0.00 | 0.00 | 78 | 1019.6 |
| 20260508131730 | 9 | 182 | 0.0 | 0.0 | 0.00 | 0.00 | 0.00 | 78 | 1019.6 |
| 20260508131618 | 9 | 182 | 0.0 | 0.0 | 0.00 | 0.00 | 0.00 | 78 | 1019.7 |
| 20260508131507 | 9 | 182 | 0.0 | 0.0 | 0.00 | 0.00 | 0.00 | 78 | 1019.7 |
| 20260508131357 | 9 | 182 | 0.0 | 0.0 | 0.00 | 0.00 | 0.00 | 78 | 1019.6 |
| 20260508131253 | 9 | 182 | 0.0 | 0.0 | 0.00 | 0.00 | 0.00 | 77 | 1019.6 |
| 20260508131154 | 9 | 182 | 0.0 | 0.0 | 0.00 | 0.00 | 0.00 | 77 | 1019.5 |
| 20260508131053 | 9 | 182 | 0.0 | 0.0 | 0.00 | 0.00 | 0.00 | 78 | 1019.5 |
| 20260508130954 | 9 | 182 | 0.0 | 0.0 | 0.00 | 0.00 | 0.00 | 77 | 1019.5 |
| 20260508130842 | 9 | 182 | 0.0 | 0.0 | 0.00 | 0.00 | 0.00 | 78 | 1019.6 |
| 20260508130732 | 9 | 182 | 0.0 | 0.0 | 0.00 | 0.00 | 0.00 | 78 | 1019.6 |
| 20260508130622 | 9 | 182 | 0.0 | 0.0 | 0.00 | 0.00 | 0.00 | 78 | 1019.6 |
| 20260508130512 | 9 | 182 | 0.0 | 0.0 | 0.00 | 0.00 | 0.00 | 78 | 1019.5 |
| 20260508130410 | 9 | 182 | 0.0 | 0.0 | 0.00 | 0.00 | 0.00 | 78 | 1019.5 |
| 20260508130310 | 9 | 182 | 0.0 | 0.0 | 0.00 | 0.00 | 0.00 | 78 | 1019.6 |
| 20260508130221 | 9 | 182 | 0.0 | 0.0 | 0.00 | 0.00 | 0.00 | 77 | 1019.6 |
| 20260508130116 | 9 | 182 | 0.0 | 1.6 | 0.00 | 0.00 | 0.00 | 78 | 1019.6 |
| 20260508130007 | 9 | 182 | 0.0 | 3.2 | 0.00 | 0.00 | 0.00 | 77 | 1019.6 |
| 20260508125901 | 9 | 182 | 0.0 | 3.2 | 0.00 | 0.00 | 0.00 | 78 | 1019.5 |
| 20260508125757 | 9 | 182 | 0.0 | 3.2 | 0.00 | 0.00 | 0.00 | 78 | 1019.6 |
| 20260508125659 | 9 | 182 | 0.0 | 3.2 | 0.00 | 0.00 | 0.00 | 78 | 1019.6 |
| 20260508125548 | 10 | 182 | 0.0 | 3.2 | 0.00 | 0.00 | 0.00 | 77 | 1019.6 |
| 20260508125437 | 10 | 182 | 0.0 | 3.2 | 0.00 | 0.00 | 0.00 | 77 | 1019.6 |
| 20260508125330 | 10 | 182 | 0.0 | 3.2 | 0.00 | 0.00 | 0.00 | 77 | 1019.6 |
| 20260508125217 | 10 | 182 | 0.0 | 3.2 | 0.00 | 0.00 | 0.00 | 77 | 1019.7 |
| 20260508125109 | 10 | 182 | 0.0 | 3.2 | 0.00 | 0.00 | 0.00 | 77 | 1019.5 |
| 20260508124958 | 10 | 182 | 0.0 | 3.2 | 0.00 | 0.00 | 0.00 | 77 | 1019.6 |
| 20260508124857 | 10 | 182 | 0.0 | 3.2 | 0.00 | 0.00 | 0.00 | 77 | 1019.5 |
| 20260508124756 | 10 | 182 | 0.0 | 1.6 | 0.00 | 0.00 | 0.00 | 77 | 1019.6 |
| 20260508124648 | 10 | 182 | 0.0 | 1.6 | 0.00 | 0.00 | 0.00 | 77 | 1019.6 |
| 20260508124537 | 10 | 182 | 0.0 | 1.6 | 0.00 | 0.00 | 0.00 | 77 | 1019.6 |
| 20260508124427 | 10 | 182 | 0.0 | 1.6 | 0.00 | 0.00 | 0.00 | 77 | 1019.6 |
| 20260508124319 | 10 | 182 | 0.0 | 3.2 | 0.00 | 0.00 | 0.00 | 76 | 1019.6 |
| 20260508124206 | 10 | 182 | 0.0 | 3.2 | 0.00 | 0.00 | 0.00 | 76 | 1019.6 |
| 20260508124057 | 10 | 182 | 0.0 | 3.2 | 0.00 | 0.00 | 0.00 | 76 | 1019.5 |
| 20260508123945 | 10 | 182 | 0.0 | 3.2 | 0.00 | 0.00 | 0.00 | 76 | 1019.6 |
| 20260508123835 | 10 | 182 | 0.0 | 3.2 | 0.00 | 0.00 | 0.00 | 76 | 1019.6 |
| 20260508123725 | 10 | 182 | 0.0 | 3.2 | 0.00 | 0.00 | 0.00 | 76 | 1019.5 |
| 20260508123617 | 10 | 182 | 0.0 | 3.2 | 0.00 | 0.00 | 0.00 | 75 | 1019.5 |
| 20260508123506 | 10 | 182 | 0.0 | 3.2 | 0.00 | 0.00 | 0.00 | 75 | 1019.6 |
| 20260508123356 | 10 | 182 | 0.0 | 3.2 | 0.00 | 0.00 | 0.00 | 75 | 1019.5 |
| 20260508123256 | 10 | 182 | 0.0 | 1.6 | 0.00 | 0.00 | 0.00 | 74 | 1019.5 |
| 20260508123154 | 10 | 182 | 0.0 | 0.0 | 0.00 | 0.00 | 0.00 | 74 | 1019.6 |
| 20260508123046 | 10 | 182 | 0.0 | 0.0 | 0.00 | 0.00 | 0.00 | 73 | 1019.5 |
| 20260508122934 | 10 | 182 | 0.0 | 0.0 | 0.00 | 0.00 | 0.00 | 72 | 1019.7 |
| 20260508122824 | 10 | 182 | 0.0 | 0.0 | 0.00 | 0.00 | 0.00 | 72 | 1019.6 |
| 20260508122714 | 10 | 182 | 0.0 | 0.0 | 0.00 | 0.00 | 0.00 | 72 | 1019.6 |
| 20260508122605 | 10 | 182 | 0.0 | 0.0 | 0.00 | 0.00 | 0.00 | 72 | 1019.6 |
| 20260508122453 | 10 | 182 | 0.0 | 0.0 | 0.00 | 0.00 | 0.00 | 73 | 1019.5 |
| 20260508122343 | 10 | 182 | 0.0 | 0.0 | 0.00 | 0.00 | 0.00 | 73 | 1019.5 |
| 20260508122249 | 10 | 182 | 0.0 | 0.0 | 0.00 | 0.00 | 0.00 | 73 | 1019.5 |
| 20260508122123 | 10 | 182 | 0.0 | 0.0 | 0.00 | 0.00 | 0.00 | 73 | 1019.6 |
| 20260508121912 | 10 | 182 | 0.0 | 0.0 | 0.00 | 0.00 | 0.00 | 73 | 1019.6 |
| 20260508121808 | 10 | 182 | 0.0 | 0.0 | 0.00 | 0.00 | 0.00 | 73 | 1019.6 |
| 20260508121714 | 10 | 182 | 0.0 | 0.0 | 0.00 | 0.00 | 0.00 | 73 | 1019.5 |
| 20260508121608 | 10 | 182 | 0.0 | 0.0 | 0.00 | 0.00 | 0.00 | 73 | 1019.5 |
| 20260508121506 | 10 | 182 | 0.0 | 0.0 | 0.00 | 0.00 | 0.00 | 73 | 1019.5 |
| 20260508121356 | 10 | 182 | 0.0 | 0.0 | 0.00 | 0.00 | 0.00 | 73 | 1019.5 |
| 20260508121245 | 10 | 182 | 0.0 | 0.0 | 0.00 | 0.00 | 0.00 | 73 | 1019.5 |
| 20260508121135 | 10 | 182 | 0.0 | 0.0 | 0.00 | 0.00 | 0.00 | 73 | 1019.5 |
| 20260508121031 | 10 | 182 | 0.0 | 0.0 | 0.00 | 0.00 | 0.00 | 73 | 1019.5 |
| 20260508120916 | 10 | 182 | 0.0 | 0.0 | 0.00 | 0.00 | 0.00 | 73 | 1019.6 |
| 20260508120806 | 10 | 182 | 0.0 | 0.0 | 0.00 | 0.00 | 0.00 | 73 | 1019.6 |
| 20260508120703 | 10 | 182 | 0.0 | 0.0 | 0.00 | 0.00 | 0.00 | 73 | 1019.6 |
| 20260508120600 | 10 | 182 | 0.0 | 0.0 | 0.00 | 0.00 | 0.00 | 73 | 1019.6 |
| 20260508120349 | 10 | 182 | 0.0 | 0.0 | 0.00 | 0.00 | 0.00 | 73 | 1019.5 |
| 20260508120241 | 10 | 182 | 0.0 | 0.0 | 0.00 | 0.00 | 0.00 | 73 | 1019.6 |
| 20260508120139 | 10 | 182 | 0.0 | 0.0 | 0.00 | 0.00 | 0.00 | 73 | 1019.6 |
| 20260508120037 | 10 | 182 | 0.0 | 0.0 | 0.00 | 0.00 | 0.00 | 73 | 1019.6 |
| 20260508115928 | 10 | 182 | 0.0 | 0.0 | 0.00 | 0.00 | 0.00 | 73 | 1019.7 |
| 20260508115817 | 10 | 182 | 0.0 | 0.0 | 0.00 | 0.00 | 0.00 | 72 | 1019.7 |
| 20260508115708 | 10 | 182 | 0.0 | 0.0 | 0.00 | 0.00 | 0.00 | 72 | 1019.7 |
| 20260508115602 | 10 | 182 | 0.0 | 0.0 | 0.00 | 0.00 | 0.00 | 73 | 1019.7 |
| 20260508115456 | 10 | 182 | 0.0 | 0.0 | 0.00 | 0.00 | 0.00 | 73 | 1019.7 |
| 20260508115354 | 10 | 182 | 0.0 | 0.0 | 0.00 | 0.00 | 0.00 | 73 | 1019.7 |
| 20260508115251 | 10 | 182 | 0.0 | 0.0 | 0.00 | 0.00 | 0.00 | 72 | 1019.7 |
| 20260508115141 | 10 | 182 | 0.0 | 0.0 | 0.00 | 0.00 | 0.00 | 72 | 1019.7 |
| 20260508115032 | 10 | 182 | 0.0 | 0.0 | 0.00 | 0.00 | 0.00 | 71 | 1019.8 |
| 20260508114921 | 11 | 182 | 0.0 | 0.0 | 0.00 | 0.00 | 0.00 | 71 | 1019.8 |
| 20260508114811 | 11 | 182 | 0.0 | 0.0 | 0.00 | 0.00 | 0.00 | 72 | 1019.8 |
| 20260508114702 | 11 | 182 | 0.0 | 0.0 | 0.00 | 0.00 | 0.00 | 72 | 1019.8 |
| 20260508114602 | 11 | 182 | 0.0 | 0.0 | 0.00 | 0.00 | 0.00 | 72 | 1019.8 |
| 20260508114459 | 11 | 182 | 0.0 | 0.0 | 0.00 | 0.00 | 0.00 | 72 | 1019.7 |
| 20260508114357 | 11 | 182 | 0.0 | 0.0 | 0.00 | 0.00 | 0.00 | 72 | 1019.7 |
| 20260508114256 | 11 | 182 | 0.0 | 0.0 | 0.00 | 0.00 | 0.00 | 72 | 1019.8 |
| 20260508114154 | 11 | 182 | 0.0 | 0.0 | 0.00 | 0.00 | 0.00 | 72 | 1019.7 |
| 20260508114053 | 11 | 182 | 0.0 | 0.0 | 0.00 | 0.00 | 0.00 | 72 | 1019.8 |
| 20260508113949 | 11 | 182 | 0.0 | 0.0 | 0.00 | 0.00 | 0.00 | 72 | 1019.9 |
| 20260508113849 | 11 | 182 | 0.0 | 0.0 | 0.00 | 0.00 | 0.00 | 72 | 1019.7 |
| 20260508113737 | 11 | 182 | 0.0 | 0.0 | 0.00 | 0.00 | 0.00 | 72 | 1019.8 |
| 20260508113627 | 11 | 182 | 0.0 | 0.0 | 0.00 | 0.00 | 0.00 | 72 | 1019.7 |
| 20260508113519 | 11 | 182 | 0.0 | 0.0 | 0.00 | 0.00 | 0.00 | 72 | 1019.7 |
| 20260508113408 | 11 | 182 | 0.0 | 0.0 | 0.00 | 0.00 | 0.00 | 72 | 1019.7 |
| 20260508113308 | 11 | 182 | 0.0 | 0.0 | 0.00 | 0.00 | 0.00 | 72 | 1019.7 |
| 20260508113147 | 11 | 182 | 0.0 | 0.0 | 0.00 | 0.00 | 0.00 | 72 | 1019.7 |
| 20260508113047 | 11 | 182 | 0.0 | 0.0 | 0.00 | 0.00 | 0.00 | 72 | 1019.7 |
| 20260508112946 | 11 | 182 | 0.0 | 0.0 | 0.00 | 0.00 | 0.00 | 72 | 1019.7 |
| 20260508112836 | 11 | 182 | 0.0 | 0.0 | 0.00 | 0.00 | 0.00 | 72 | 1019.6 |
| 20260508112727 | 11 | 182 | 0.0 | 0.0 | 0.00 | 0.00 | 0.00 | 72 | 1019.6 |
| 20260508112615 | 11 | 182 | 0.0 | 0.0 | 0.00 | 0.00 | 0.00 | 72 | 1019.7 |
| 20260508112507 | 11 | 182 | 0.0 | 0.0 | 0.00 | 0.00 | 0.00 | 71 | 1019.7 |
| 20260508112357 | 11 | 182 | 0.0 | 0.0 | 0.00 | 0.00 | 0.00 | 72 | 1019.7 |
| 20260508112248 | 11 | 182 | 0.0 | 0.0 | 0.00 | 0.00 | 0.00 | 71 | 1019.6 |
| 20260508112138 | 11 | 182 | 0.0 | 0.0 | 0.00 | 0.00 | 0.00 | 72 | 1019.6 |
| 20260508111832 | 11 | 182 | 0.0 | 0.0 | 0.00 | 0.00 | 0.00 | 72 | 1019.6 |
| 20260508111724 | 11 | 182 | 0.0 | 0.0 | 0.00 | 0.00 | 0.00 | 72 | 1019.6 |
| 20260508111624 | 11 | 182 | 0.0 | 0.0 | 0.00 | 0.00 | 0.00 | 72 | 1019.6 |
| 20260508111527 | 11 | 182 | 0.0 | 0.0 | 0.00 | 0.00 | 0.00 | 71 | 1019.6 |
| 20260508111413 | 11 | 182 | 0.0 | 0.0 | 0.00 | 0.00 | 0.00 | 72 | 1019.6 |
| 20260508111311 | 11 | 182 | 0.0 | 0.0 | 0.00 | 0.00 | 0.00 | 72 | 1019.6 |
| 20260508111211 | 11 | 182 | 0.0 | 0.0 | 0.00 | 0.00 | 0.00 | 72 | 1019.5 |
| 20260508111101 | 11 | 182 | 0.0 | 0.0 | 0.00 | 0.00 | 0.00 | 72 | 1019.4 |
| 20260508110949 | 11 | 182 | 0.0 | 0.0 | 0.00 | 0.00 | 0.00 | 72 | 1019.4 |
| 20260508110841 | 11 | 182 | 0.0 | 0.0 | 0.00 | 0.00 | 0.00 | 72 | 1019.5 |
| 20260508110729 | 11 | 182 | 0.0 | 0.0 | 0.00 | 0.00 | 0.00 | 71 | 1019.4 |
| 20260508110627 | 11 | 182 | 0.0 | 0.0 | 0.00 | 0.00 | 0.00 | 71 | 1019.4 |
| 20260508110557 | 11 | 182 | 0.0 | 0.0 | 0.00 | 0.00 | 0.00 | 71 | 1019.5 |
| 20260508110530 | 11 | 182 | 0.0 | 0.0 | 0.00 | 0.00 | 0.00 | 71 | 1019.3 |
| 20260508110314 | 11 | 182 | 0.0 | 0.0 | 0.00 | 0.00 | 0.00 | 71 | 1019.4 |
| 20260508110203 | 11 | 182 | 0.0 | 0.0 | 0.00 | 0.00 | 0.00 | 71 | 1019.4 |
| 20260508110053 | 11 | 182 | 0.0 | 0.0 | 0.00 | 0.00 | 0.00 | 70 | 1019.4 |
| 20260508105953 | 11 | 182 | 0.0 | 0.0 | 0.00 | 0.00 | 0.00 | 70 | 1019.4 |
| 20260508105852 | 11 | 182 | 0.0 | 0.0 | 0.00 | 0.00 | 0.00 | 70 | 1019.5 |
| 20260508105741 | 11 | 182 | 0.0 | 0.0 | 0.00 | 0.00 | 0.00 | 70 | 1019.4 |
| 20260508105638 | 11 | 182 | 0.0 | 0.0 | 0.00 | 0.00 | 0.00 | 70 | 1019.4 |
| 20260508105536 | 11 | 182 | 0.0 | 0.0 | 0.00 | 0.00 | 0.00 | 70 | 1019.4 |
| 20260508105441 | 11 | 182 | 0.0 | 0.0 | 0.00 | 0.00 | 0.00 | 70 | 1019.4 |
| 20260508105326 | 11 | 182 | 0.0 | 1.6 | 0.00 | 0.00 | 0.00 | 69 | 1019.4 |
| 20260508105106 | 11 | 182 | 0.0 | 3.2 | 0.00 | 0.00 | 0.00 | 69 | 1019.4 |
| 20260508104958 | 11 | 182 | 0.0 | 3.2 | 0.00 | 0.00 | 0.00 | 69 | 1019.4 |
| 20260508104845 | 11 | 182 | 0.0 | 3.2 | 0.00 | 0.00 | 0.00 | 69 | 1019.4 |
| 20260508104736 | 11 | 182 | 0.0 | 3.2 | 0.00 | 0.00 | 0.00 | 69 | 1019.4 |
| 20260508104626 | 11 | 182 | 0.0 | 3.2 | 0.00 | 0.00 | 0.00 | 69 | 1019.4 |
| 20260508104516 | 11 | 182 | 0.0 | 3.2 | 0.00 | 0.00 | 0.00 | 69 | 1019.4 |
| 20260508104416 | 11 | 182 | 0.0 | 3.2 | 0.00 | 0.00 | 0.00 | 69 | 1019.4 |
| 20260508104312 | 11 | 182 | 0.0 | 3.2 | 0.00 | 0.00 | 0.00 | 69 | 1019.4 |
| 20260508104202 | 11 | 182 | 0.0 | 3.2 | 0.00 | 0.00 | 0.00 | 69 | 1019.5 |
| 20260508104052 | 11 | 182 | 0.0 | 3.2 | 0.00 | 0.00 | 0.00 | 69 | 1019.5 |
| 20260508103945 | 11 | 182 | 0.0 | 3.2 | 0.00 | 0.00 | 0.00 | 69 | 1019.5 |
| 20260508103833 | 11 | 182 | 0.0 | 3.2 | 0.00 | 0.00 | 0.00 | 69 | 1019.4 |
| 20260508103725 | 11 | 182 | 0.0 | 3.2 | 0.00 | 0.00 | 0.00 | 69 | 1019.5 |
| 20260508103611 | 11 | 182 | 0.0 | 1.6 | 0.00 | 0.00 | 0.00 | 69 | 1019.5 |
| 20260508103502 | 11 | 182 | 0.0 | 3.2 | 0.00 | 0.00 | 0.00 | 69 | 1019.4 |
| 20260508103357 | 11 | 182 | 0.0 | 3.2 | 0.00 | 0.00 | 0.00 | 69 | 1019.5 |
| 20260508103242 | 11 | 182 | 1.6 | 3.2 | 0.00 | 0.00 | 0.00 | 69 | 1019.4 |
| 20260508103132 | 11 | 182 | 1.6 | 3.2 | 0.00 | 0.00 | 0.00 | 69 | 1019.4 |
| 20260508103021 | 11 | 182 | 1.6 | 3.2 | 0.00 | 0.00 | 0.00 | 69 | 1019.5 |
| 20260508102913 | 11 | 182 | 1.6 | 3.2 | 0.00 | 0.00 | 0.00 | 69 | 1019.5 |
| 20260508102813 | 11 | 182 | 1.6 | 3.2 | 0.00 | 0.00 | 0.00 | 69 | 1019.3 |
| 20260508102712 | 11 | 182 | 1.6 | 3.2 | 0.00 | 0.00 | 0.00 | 69 | 1019.3 |
| 20260508102601 | 11 | 182 | 0.0 | 3.2 | 0.00 | 0.00 | 0.00 | 69 | 1019.3 |
| 20260508102451 | 11 | 182 | 0.0 | 3.2 | 0.00 | 0.00 | 0.00 | 69 | 1019.3 |
| 20260508102346 | 11 | 182 | 0.0 | 3.2 | 0.00 | 0.00 | 0.00 | 69 | 1019.3 |
| 20260508102232 | 11 | 182 | 0.0 | 0.0 | 0.00 | 0.00 | 0.00 | 69 | 1019.2 |
| 20260508102125 | 11 | 182 | 0.0 | 0.0 | 0.00 | 0.00 | 0.00 | 69 | 1019.2 |
| 20260508102012 | 11 | 182 | 0.0 | 0.0 | 0.00 | 0.00 | 0.00 | 69 | 1019.1 |
| 20260508101910 | 11 | 182 | 0.0 | 1.6 | 0.00 | 0.00 | 0.00 | 69 | 1019.1 |
| 20260508101755 | 11 | 182 | 0.0 | 1.6 | 0.00 | 0.00 | 0.00 | 70 | 1019.2 |
| 20260508101643 | 11 | 182 | 0.0 | 3.2 | 0.00 | 0.00 | 0.00 | 70 | 1019.3 |
| 20260508101532 | 11 | 182 | 0.0 | 3.2 | 0.00 | 0.00 | 0.00 | 70 | 1019.3 |
| 20260508101430 | 11 | 182 | 0.0 | 3.2 | 0.00 | 0.00 | 0.00 | 70 | 1019.2 |
| 20260508101332 | 11 | 182 | 0.0 | 3.2 | 0.00 | 0.00 | 0.00 | 70 | 1019.3 |
| 20260508101227 | 11 | 182 | 0.0 | 3.2 | 0.00 | 0.00 | 0.00 | 70 | 1019.3 |
| 20260508101124 | 11 | 182 | 0.0 | 3.2 | 0.00 | 0.00 | 0.00 | 70 | 1019.3 |
| 20260508101024 | 11 | 182 | 0.0 | 3.2 | 0.00 | 0.00 | 0.00 | 70 | 1019.2 |
| 20260508100916 | 11 | 182 | 0.0 | 3.2 | 0.00 | 0.00 | 0.00 | 69 | 1019.2 |
| 20260508100807 | 11 | 182 | 0.0 | 3.2 | 0.00 | 0.00 | 0.00 | 69 | 1019.2 |
| 20260508100655 | 11 | 182 | 0.0 | 1.6 | 0.00 | 0.00 | 0.00 | 69 | 1019.1 |
| 20260508100544 | 11 | 182 | 0.0 | 3.2 | 0.00 | 0.00 | 0.00 | 69 | 1019.2 |
| 20260508100434 | 11 | 182 | 0.0 | 3.2 | 0.00 | 0.00 | 0.00 | 69 | 1019.2 |
| 20260508100326 | 12 | 182 | 0.0 | 3.2 | 0.00 | 0.00 | 0.00 | 68 | 1019.2 |
| 20260508100213 | 12 | 182 | 0.0 | 3.2 | 0.00 | 0.00 | 0.00 | 68 | 1019.1 |
| 20260508100104 | 12 | 182 | 0.0 | 3.2 | 0.00 | 0.00 | 0.00 | 68 | 1019.1 |
| 20260508095954 | 12 | 182 | 0.0 | 3.2 | 0.00 | 0.00 | 0.00 | 68 | 1019.1 |
| 20260508095844 | 12 | 182 | 0.0 | 3.2 | 0.00 | 0.00 | 0.00 | 68 | 1019.0 |
| 20260508095739 | 12 | 182 | 0.0 | 3.2 | 0.00 | 0.00 | 0.00 | 69 | 1019.1 |
| 20260508095634 | 12 | 182 | 0.0 | 3.2 | 0.00 | 0.00 | 0.00 | 69 | 1019.1 |
| 20260508095533 | 12 | 182 | 0.0 | 3.2 | 0.00 | 0.00 | 0.00 | 69 | 1019.0 |
| 20260508095422 | 12 | 182 | 0.0 | 3.2 | 0.00 | 0.00 | 0.00 | 68 | 1019.0 |
| 20260508095314 | 12 | 182 | 0.0 | 3.2 | 0.00 | 0.00 | 0.00 | 68 | 1018.9 |
| 20260508095201 | 12 | 182 | 0.0 | 3.2 | 0.00 | 0.00 | 0.00 | 68 | 1018.9 |
| 20260508095051 | 12 | 182 | 0.0 | 3.2 | 0.00 | 0.00 | 0.00 | 68 | 1019.0 |
| 20260508094943 | 12 | 182 | 0.0 | 3.2 | 0.00 | 0.00 | 0.00 | 68 | 1018.9 |
| 20260508094832 | 12 | 182 | 0.0 | 3.2 | 0.00 | 0.00 | 0.00 | 68 | 1019.0 |
| 20260508094725 | 12 | 182 | 0.0 | 3.2 | 0.00 | 0.00 | 0.00 | 68 | 1018.9 |
| 20260508094612 | 12 | 182 | 0.0 | 3.2 | 0.00 | 0.00 | 0.00 | 68 | 1018.9 |
| 20260508094502 | 12 | 182 | 0.0 | 3.2 | 0.00 | 0.00 | 0.00 | 68 | 1018.9 |
| 20260508094352 | 12 | 182 | 0.0 | 3.2 | 0.00 | 0.00 | 0.00 | 68 | 1018.9 |
| 20260508094244 | 12 | 182 | 0.0 | 3.2 | 0.00 | 0.00 | 0.00 | 68 | 1018.9 |
| 20260508094132 | 12 | 214 | 0.0 | 3.2 | 0.00 | 0.00 | 0.00 | 68 | 1018.8 |
| 20260508094030 | 12 | 214 | 0.0 | 0.0 | 0.00 | 0.00 | 0.00 | 68 | 1018.8 |
| 20260508093930 | 12 | 274 | 0.0 | 0.0 | 0.00 | 0.00 | 0.00 | 68 | 1018.7 |
| 20260508093820 | 12 | 274 | 0.0 | 0.0 | 0.00 | 0.00 | 0.00 | 68 | 1018.9 |
| 20260508093714 | 12 | 274 | 0.0 | 0.0 | 0.00 | 0.00 | 0.00 | 68 | 1018.8 |
| 20260508093600 | 12 | 274 | 0.0 | 0.0 | 0.00 | 0.00 | 0.00 | 67 | 1018.8 |
| 20260508093449 | 12 | 274 | 0.0 | 0.0 | 0.00 | 0.00 | 0.00 | 67 | 1018.8 |
| 20260508093231 | 12 | 274 | 0.0 | 0.0 | 0.00 | 0.00 | 0.00 | 67 | 1018.8 |
| 20260508093119 | 12 | 274 | 0.0 | 0.0 | 0.00 | 0.00 | 0.00 | 67 | 1018.8 |
| 20260508093009 | 12 | 274 | 0.0 | 0.0 | 0.00 | 0.00 | 0.00 | 67 | 1018.8 |
| 20260508092902 | 12 | 274 | 0.0 | 0.0 | 0.00 | 0.00 | 0.00 | 67 | 1018.9 |
| 20260508092750 | 12 | 274 | 0.0 | 0.0 | 0.00 | 0.00 | 0.00 | 67 | 1018.8 |
| 20260508092643 | 12 | 274 | 0.0 | 0.0 | 0.00 | 0.00 | 0.00 | 67 | 1018.8 |
| 20260508092531 | 12 | 274 | 0.0 | 0.0 | 0.00 | 0.00 | 0.00 | 67 | 1018.8 |
| 20260508092429 | 12 | 274 | 0.0 | 0.0 | 0.00 | 0.00 | 0.00 | 67 | 1018.8 |
| 20260508092330 | 12 | 274 | 0.0 | 0.0 | 0.00 | 0.00 | 0.00 | 67 | 1018.8 |
| 20260508092222 | 12 | 274 | 0.0 | 0.0 | 0.00 | 0.00 | 0.00 | 66 | 1018.8 |
| 20260508092112 | 12 | 274 | 0.0 | 0.0 | 0.00 | 0.00 | 0.00 | 66 | 1018.8 |
| 20260508092004 | 12 | 274 | 0.0 | 0.0 | 0.00 | 0.00 | 0.00 | 66 | 1018.7 |
| 20260508091900 | 13 | 274 | 0.0 | 0.0 | 0.00 | 0.00 | 0.00 | 66 | 1018.7 |
| 20260508091749 | 13 | 274 | 0.0 | 0.0 | 0.00 | 0.00 | 0.00 | 65 | 1018.6 |
| 20260508091642 | 13 | 161 | 0.0 | 0.0 | 0.00 | 0.00 | 0.00 | 65 | 1018.8 |
| 20260508091529 | 13 | 161 | 0.0 | 0.0 | 0.00 | 0.00 | 0.00 | 65 | 1018.6 |
| 20260508091420 | 13 | 161 | 0.0 | 0.0 | 0.00 | 0.00 | 0.00 | 66 | 1018.6 |
| 20260508091312 | 13 | 161 | 0.0 | 0.0 | 0.00 | 0.00 | 0.00 | 66 | 1018.6 |
| 20260508091212 | 13 | 161 | 0.0 | 0.0 | 0.00 | 0.00 | 0.00 | 66 | 1018.6 |
| 20260508091112 | 13 | 161 | 0.0 | 0.0 | 0.00 | 0.00 | 0.00 | 66 | 1018.6 |
| 20260508091010 | 13 | 161 | 0.0 | 0.0 | 0.00 | 0.00 | 0.00 | 66 | 1018.6 |
| 20260508090906 | 13 | 161 | 0.0 | 0.0 | 0.00 | 0.00 | 0.00 | 66 | 1018.6 |
| 20260508090806 | 13 | 161 | 0.0 | 0.0 | 0.00 | 0.00 | 0.00 | 66 | 1018.6 |
| 20260508090656 | 13 | 161 | 0.0 | 0.0 | 0.00 | 0.00 | 0.00 | 66 | 1018.7 |
| 20260508090546 | 13 | 161 | 0.0 | 0.0 | 0.00 | 0.00 | 0.00 | 65 | 1018.6 |
| 20260508090435 | 13 | 161 | 0.0 | 0.0 | 0.00 | 0.00 | 0.00 | 65 | 1018.6 |
| 20260508090219 | 13 | 161 | 0.0 | 0.0 | 0.00 | 0.00 | 0.00 | 64 | 1018.6 |
| 20260508090119 | 13 | 161 | 0.0 | 0.0 | 0.00 | 0.00 | 0.00 | 64 | 1018.5 |
| 20260508090005 | 13 | 161 | 0.0 | 0.0 | 0.00 | 0.00 | 0.00 | 64 | 1018.5 |
| 20260508085859 | 13 | 161 | 0.0 | 0.0 | 0.00 | 0.00 | 0.00 | 64 | 1018.5 |
| 20260508085759 | 13 | 161 | 0.0 | 0.0 | 0.00 | 0.00 | 0.00 | 64 | 1018.6 |
| 20260508085655 | 13 | 161 | 0.0 | 0.0 | 0.00 | 0.00 | 0.00 | 64 | 1018.5 |
| 20260508085555 | 13 | 161 | 0.0 | 0.0 | 0.00 | 0.00 | 0.00 | 64 | 1018.4 |
| 20260508085448 | 13 | 161 | 0.0 | 0.0 | 0.00 | 0.00 | 0.00 | 64 | 1018.4 |
| 20260508085345 | 13 | 161 | 0.0 | 0.0 | 0.00 | 0.00 | 0.00 | 64 | 1018.5 |
| 20260508085244 | 13 | 161 | 0.0 | 0.0 | 0.00 | 0.00 | 0.00 | 64 | 1018.4 |
| 20260508085139 | 13 | 161 | 0.0 | 0.0 | 0.00 | 0.00 | 0.00 | 64 | 1018.4 |
| 20260508085030 | 13 | 161 | 0.0 | 1.6 | 0.00 | 0.00 | 0.00 | 64 | 1018.4 |
| 20260508084924 | 13 | 161 | 0.0 | 3.2 | 0.00 | 0.00 | 0.00 | 64 | 1018.5 |
| 20260508084708 | 13 | 161 | 0.0 | 3.2 | 0.00 | 0.00 | 0.00 | 64 | 1018.4 |
| 20260508084602 | 13 | 161 | 0.0 | 3.2 | 0.00 | 0.00 | 0.00 | 64 | 1018.5 |
| 20260508084447 | 13 | 161 | 0.0 | 3.2 | 0.00 | 0.00 | 0.00 | 64 | 1018.4 |
| 20260508084338 | 13 | 161 | 0.0 | 3.2 | 0.00 | 0.00 | 0.00 | 64 | 1018.5 |
| 20260508084235 | 13 | 161 | 0.0 | 3.2 | 0.00 | 0.00 | 0.00 | 64 | 1018.5 |
| 20260508084133 | 13 | 161 | 0.0 | 3.2 | 0.00 | 0.00 | 0.00 | 64 | 1018.4 |
| 20260508084035 | 13 | 161 | 0.0 | 3.2 | 0.00 | 0.00 | 0.00 | 64 | 1018.4 |
| 20260508083923 | 13 | 161 | 0.0 | 0.0 | 0.00 | 0.00 | 0.00 | 64 | 1018.3 |
| 20260508083818 | 13 | 161 | 0.0 | 0.0 | 0.00 | 0.00 | 0.00 | 64 | 1018.3 |
| 20260508083719 | 13 | 161 | 0.0 | 0.0 | 0.00 | 0.00 | 0.00 | 64 | 1018.2 |
| 20260508083617 | 13 | 161 | 0.0 | 0.0 | 0.00 | 0.00 | 0.00 | 64 | 1018.2 |
| 20260508083516 | 13 | 161 | 0.0 | 0.0 | 0.00 | 0.00 | 0.00 | 64 | 1018.3 |
| 20260508083414 | 13 | 161 | 0.0 | 0.0 | 0.00 | 0.00 | 0.00 | 64 | 1018.3 |
| 20260508083315 | 13 | 161 | 0.0 | 0.0 | 0.00 | 0.00 | 0.00 | 65 | 1018.2 |
| 20260508083215 | 14 | 161 | 0.0 | 0.0 | 0.00 | 0.00 | 0.00 | 65 | 1018.2 |
| 20260508083107 | 14 | 161 | 0.0 | 0.0 | 0.00 | 0.00 | 0.00 | 64 | 1018.2 |
| 20260508083003 | 14 | 161 | 0.0 | 0.0 | 0.00 | 0.00 | 0.00 | 64 | 1018.2 |
| 20260508082855 | 14 | 161 | 0.0 | 0.0 | 0.00 | 0.00 | 0.00 | 64 | 1018.2 |
| 20260508082744 | 14 | 161 | 0.0 | 0.0 | 0.00 | 0.00 | 0.00 | 64 | 1018.1 |
| 20260508082638 | 14 | 161 | 0.0 | 0.0 | 0.00 | 0.00 | 0.00 | 64 | 1018.1 |
| 20260508082537 | 14 | 161 | 0.0 | 0.0 | 0.00 | 0.00 | 0.00 | 64 | 1018.1 |
| 20260508082437 | 14 | 161 | 0.0 | 0.0 | 0.00 | 0.00 | 0.00 | 63 | 1018.1 |
| 20260508082335 | 14 | 161 | 0.0 | 0.0 | 0.00 | 0.00 | 0.00 | 63 | 1018.1 |
| 20260508082232 | 14 | 161 | 0.0 | 0.0 | 0.00 | 0.00 | 0.00 | 63 | 1018.1 |
| 20260508082133 | 14 | 161 | 0.0 | 0.0 | 0.00 | 0.00 | 0.00 | 63 | 1018.0 |
| 20260508082022 | 14 | 161 | 0.0 | 0.0 | 0.00 | 0.00 | 0.00 | 63 | 1017.9 |
| 20260508081917 | 14 | 161 | 0.0 | 0.0 | 0.00 | 0.00 | 0.00 | 63 | 1018.0 |
| 20260508081703 | 14 | 161 | 0.0 | 0.0 | 0.00 | 0.00 | 0.00 | 63 | 1018.0 |
| 20260508081553 | 15 | 161 | 0.0 | 0.0 | 0.00 | 0.00 | 0.00 | 63 | 1018.0 |
| 20260508081450 | 15 | 161 | 0.0 | 0.0 | 0.00 | 0.00 | 0.00 | 63 | 1017.9 |
| 20260508081337 | 15 | 161 | 0.0 | 0.0 | 0.00 | 0.00 | 0.00 | 63 | 1018.0 |
| 20260508081235 | 15 | 161 | 0.0 | 0.0 | 0.00 | 0.00 | 0.00 | 63 | 1018.0 |
| 20260508081133 | 15 | 161 | 0.0 | 0.0 | 0.00 | 0.00 | 0.00 | 63 | 1017.9 |
| 20260508081031 | 15 | 161 | 0.0 | 0.0 | 0.00 | 0.00 | 0.00 | 63 | 1018.0 |
| 20260508080925 | 15 | 161 | 0.0 | 0.0 | 0.00 | 0.00 | 0.00 | 62 | 1017.9 |
| 20260508080815 | 15 | 161 | 0.0 | 0.0 | 0.00 | 0.00 | 0.00 | 62 | 1017.9 |
| 20260508080713 | 15 | 161 | 0.0 | 0.0 | 0.00 | 0.00 | 0.00 | 62 | 1017.9 |
| 20260508080611 | 15 | 161 | 0.0 | 0.0 | 0.00 | 0.00 | 0.00 | 62 | 1017.7 |
| 20260508080503 | 15 | 161 | 0.0 | 0.0 | 0.00 | 0.00 | 0.00 | 62 | 1017.7 |
| 20260508080358 | 15 | 161 | 0.0 | 0.0 | 0.00 | 0.00 | 0.00 | 62 | 1017.7 |
| 20260508080139 | 15 | 161 | 0.0 | 0.0 | 0.00 | 0.00 | 0.00 | 62 | 1017.8 |
| 20260508080041 | 15 | 161 | 0.0 | 0.0 | 0.00 | 0.00 | 0.00 | 62 | 1017.6 |
| 20260508075939 | 15 | 161 | 0.0 | 0.0 | 0.00 | 0.00 | 0.00 | 61 | 1017.7 |
| 20260508075840 | 15 | 161 | 0.0 | 0.0 | 0.00 | 0.00 | 0.00 | 59 | 1017.6 |
| 20260508075439 | 15 | 161 | 0.0 | 0.0 | 0.00 | 0.00 | 0.00 | 59 | 1017.7 |
| 20260508075331 | 15 | 161 | 0.0 | 0.0 | 0.00 | 0.00 | 0.00 | 59 | 1017.7 |
| 20260508075232 | 15 | 161 | 0.0 | 0.0 | 0.00 | 0.00 | 0.00 | 59 | 1017.6 |
| 20260508075133 | 15 | 161 | 0.0 | 0.0 | 0.00 | 0.00 | 0.00 | 59 | 1017.7 |
| 20260508075031 | 15 | 161 | 0.0 | 0.0 | 0.00 | 0.00 | 0.00 | 59 | 1017.7 |
| 20260508074929 | 16 | 161 | 0.0 | 0.0 | 0.00 | 0.00 | 0.00 | 59 | 1017.7 |
| 20260508074819 | 16 | 161 | 0.0 | 0.0 | 0.00 | 0.00 | 0.00 | 58 | 1017.6 |
| 20260508074714 | 16 | 161 | 0.0 | 0.0 | 0.00 | 0.00 | 0.00 | 58 | 1017.7 |
| 20260508074601 | 16 | 161 | 0.0 | 0.0 | 0.00 | 0.00 | 0.00 | 58 | 1017.6 |
| 20260508074451 | 16 | 161 | 0.0 | 0.0 | 0.00 | 0.00 | 0.00 | 58 | 1017.7 |
| 20260508074343 | 16 | 161 | 0.0 | 0.0 | 0.00 | 0.00 | 0.00 | 58 | 1017.7 |
| 20260508074241 | 16 | 161 | 0.0 | 0.0 | 0.00 | 0.00 | 0.00 | 57 | 1017.7 |
| 20260508074139 | 16 | 161 | 0.0 | 0.0 | 0.00 | 0.00 | 0.00 | 57 | 1017.8 |
| 20260508074037 | 16 | 161 | 0.0 | 0.0 | 0.00 | 0.00 | 0.00 | 57 | 1017.8 |
| 20260508073929 | 16 | 161 | 0.0 | 3.2 | 0.00 | 0.00 | 0.00 | 57 | 1017.7 |
| 20260508073830 | 16 | 161 | 0.0 | 3.2 | 0.00 | 0.00 | 0.00 | 57 | 1017.6 |
| 20260508073729 | 16 | 161 | 0.0 | 3.2 | 0.00 | 0.00 | 0.00 | 56 | 1017.7 |
| 20260508073626 | 16 | 161 | 0.0 | 3.2 | 0.00 | 0.00 | 0.00 | 56 | 1017.7 |
| 20260508073527 | 16 | 161 | 0.0 | 3.2 | 0.00 | 0.00 | 0.00 | 56 | 1017.7 |
| 20260508073416 | 16 | 161 | 0.0 | 3.2 | 0.00 | 0.00 | 0.00 | 55 | 1017.5 |
| 20260508073307 | 16 | 161 | 0.0 | 3.2 | 0.00 | 0.00 | 0.00 | 55 | 1017.6 |
| 20260508073202 | 16 | 161 | 0.0 | 3.2 | 0.00 | 0.00 | 0.00 | 55 | 1017.5 |
| 20260508073101 | 16 | 161 | 0.0 | 3.2 | 0.00 | 0.00 | 0.00 | 55 | 1017.5 |
| 20260508073001 | 17 | 161 | 0.0 | 1.6 | 0.00 | 0.00 | 0.00 | 55 | 1017.6 |
| 20260508072853 | 17 | 161 | 0.0 | 0.0 | 0.00 | 0.00 | 0.00 | 54 | 1017.6 |
| 20260508072756 | 17 | 161 | 0.0 | 0.0 | 0.00 | 0.00 | 0.00 | 54 | 1017.6 |
| 20260508072656 | 17 | 161 | 0.0 | 0.0 | 0.00 | 0.00 | 0.00 | 54 | 1017.5 |
| 20260508072548 | 17 | 161 | 0.0 | 0.0 | 0.00 | 0.00 | 0.00 | 54 | 1017.5 |
| 20260508072446 | 17 | 161 | 0.0 | 0.0 | 0.00 | 0.00 | 0.00 | 55 | 1017.4 |
| 20260508072344 | 17 | 161 | 0.0 | 0.0 | 0.00 | 0.00 | 0.00 | 54 | 1017.4 |
| 20260508072233 | 17 | 161 | 0.0 | 0.0 | 0.00 | 0.00 | 0.00 | 53 | 1017.5 |
| 20260508072108 | 17 | 161 | 0.0 | 0.0 | 0.00 | 0.00 | 0.00 | 53 | 1017.5 |
| 20260508072008 | 17 | 161 | 0.0 | 0.0 | 0.00 | 0.00 | 0.00 | 52 | 1017.4 |
| 20260508071902 | 17 | 161 | 0.0 | 0.0 | 0.00 | 0.00 | 0.00 | 52 | 1017.4 |
| 20260508071802 | 17 | 161 | 0.0 | 0.0 | 0.00 | 0.00 | 0.00 | 52 | 1017.4 |
| 20260508071655 | 17 | 161 | 0.0 | 0.0 | 0.00 | 0.00 | 0.00 | 52 | 1017.3 |
| 20260508071549 | 17 | 161 | 0.0 | 1.6 | 0.00 | 0.00 | 0.00 | 53 | 1017.3 |
| 20260508071445 | 17 | 161 | 0.0 | 1.6 | 0.00 | 0.00 | 0.00 | 53 | 1017.3 |
| 20260508071346 | 18 | 161 | 0.0 | 1.6 | 0.00 | 0.00 | 0.00 | 52 | 1017.2 |
| 20260508071236 | 18 | 161 | 0.0 | 1.6 | 0.00 | 0.00 | 0.00 | 52 | 1017.3 |
| 20260508071134 | 18 | 161 | 0.0 | 1.6 | 0.00 | 0.00 | 0.00 | 51 | 1017.2 |
| 20260508071030 | 18 | 161 | 0.0 | 1.6 | 0.00 | 0.00 | 0.00 | 51 | 1017.2 |
| 20260508070934 | 18 | 161 | 0.0 | 1.6 | 0.00 | 0.00 | 0.00 | 51 | 1017.2 |
| 20260508070819 | 18 | 161 | 0.0 | 1.6 | 0.00 | 0.00 | 0.00 | 51 | 1017.1 |
| 20260508070715 | 18 | 161 | 0.0 | 1.6 | 0.00 | 0.00 | 0.00 | 51 | 1017.1 |
| 20260508070613 | 18 | 161 | 0.0 | 1.6 | 0.00 | 0.00 | 0.00 | 51 | 1017.2 |
| 20260508070514 | 18 | 161 | 0.0 | 1.6 | 0.00 | 0.00 | 0.00 | 51 | 1017.1 |
| 20260508070411 | 18 | 161 | 0.0 | 3.2 | 0.00 | 0.00 | 0.00 | 51 | 1017.1 |
| 20260508070312 | 18 | 161 | 1.6 | 3.2 | 0.00 | 0.00 | 0.00 | 51 | 1017.1 |
| 20260508070200 | 18 | 161 | 1.6 | 3.2 | 0.00 | 0.00 | 0.00 | 50 | 1017.1 |
| 20260508070108 | 18 | 161 | 1.6 | 3.2 | 0.00 | 0.00 | 0.00 | 50 | 1017.0 |
| 20260508065949 | 18 | 161 | 1.6 | 3.2 | 0.00 | 0.00 | 0.00 | 50 | 1017.0 |
| 20260508065847 | 18 | 161 | 1.6 | 3.2 | 0.00 | 0.00 | 0.00 | 49 | 1017.0 |
| 20260508065745 | 18 | 161 | 1.6 | 3.2 | 0.00 | 0.00 | 0.00 | 48 | 1017.2 |
| 20260508065634 | 18 | 161 | 1.6 | 3.2 | 0.00 | 0.00 | 0.00 | 48 | 1017.1 |
| 20260508065528 | 18 | 161 | 1.6 | 3.2 | 0.00 | 0.00 | 0.00 | 49 | 1017.1 |
| 20260508065415 | 18 | 161 | 1.6 | 3.2 | 0.00 | 0.00 | 0.00 | 49 | 1017.2 |
| 20260508065307 | 18 | 161 | 1.6 | 3.2 | 0.00 | 0.00 | 0.00 | 49 | 1017.2 |
| 20260508065209 | 18 | 161 | 1.6 | 3.2 | 0.00 | 0.00 | 0.00 | 50 | 1017.1 |
| 20260508065109 | 18 | 161 | 1.6 | 3.2 | 0.00 | 0.00 | 0.00 | 51 | 1017.1 |
| 20260508065007 | 19 | 161 | 0.0 | 3.2 | 0.00 | 0.00 | 0.00 | 52 | 1017.1 |
| 20260508064905 | 19 | 161 | 0.0 | 1.6 | 0.00 | 0.00 | 0.00 | 52 | 1017.1 |
| 20260508064755 | 19 | 256 | 0.0 | 0.0 | 0.00 | 0.00 | 0.00 | 53 | 1017.1 |
| 20260508064646 | 19 | 256 | 0.0 | 0.0 | 0.00 | 0.00 | 0.00 | 53 | 1017.1 |
| 20260508064539 | 19 | 256 | 0.0 | 0.0 | 0.00 | 0.00 | 0.00 | 53 | 1017.0 |
| 20260508064425 | 19 | 256 | 0.0 | 0.0 | 0.00 | 0.00 | 0.00 | 53 | 1017.1 |
| 20260508064314 | 18 | 256 | 0.0 | 0.0 | 0.00 | 0.00 | 0.00 | 53 | 1017.0 |
| 20260508064213 | 18 | 256 | 0.0 | 0.0 | 0.00 | 0.00 | 0.00 | 53 | 1017.0 |
| 20260508064110 | 18 | 256 | 0.0 | 0.0 | 0.00 | 0.00 | 0.00 | 53 | 1017.0 |
| 20260508064014 | 18 | 256 | 0.0 | 0.0 | 0.00 | 0.00 | 0.00 | 53 | 1017.0 |
| 20260508063857 | 18 | 256 | 0.0 | 0.0 | 0.00 | 0.00 | 0.00 | 54 | 1017.0 |
| 20260508063757 | 18 | 256 | 0.0 | 0.0 | 0.00 | 0.00 | 0.00 | 55 | 1016.9 |
| 20260508063649 | 18 | 256 | 0.0 | 0.0 | 0.00 | 0.00 | 0.00 | 53 | 1017.0 |
| 20260508063537 | 19 | 256 | 0.0 | 0.0 | 0.00 | 0.00 | 0.00 | 53 | 1016.9 |
| 20260508063433 | 19 | 256 | 0.0 | 0.0 | 0.00 | 0.00 | 0.00 | 53 | 1016.9 |
| 20260508063334 | 19 | 256 | 0.0 | 1.6 | 0.00 | 0.00 | 0.00 | 52 | 1016.8 |
| 20260508063240 | 19 | 256 | 0.0 | 1.6 | 0.00 | 0.00 | 0.00 | 49 | 1016.9 |
| 20260508063115 | 20 | 256 | 0.0 | 1.6 | 0.00 | 0.00 | 0.00 | 49 | 1016.7 |
| 20260508063011 | 20 | 256 | 0.0 | 1.6 | 0.00 | 0.00 | 0.00 | 48 | 1016.7 |
| 20260508062855 | 20 | 256 | 0.0 | 1.6 | 0.00 | 0.00 | 0.00 | 46 | 1016.7 |
| 20260508062744 | 20 | 256 | 0.0 | 1.6 | 0.00 | 0.00 | 0.00 | 44 | 1016.7 |
| 20260508062634 | 20 | 256 | 0.0 | 3.2 | 0.00 | 0.00 | 0.00 | 42 | 1016.7 |
| 20260508062525 | 20 | 256 | 0.0 | 3.2 | 0.00 | 0.00 | 0.00 | 40 | 1016.8 |
| 20260508062415 | 20 | 256 | 0.0 | 3.2 | 0.00 | 0.00 | 0.00 | 49 | 1016.8 |
| 20260508062306 | 20 | 256 | 0.0 | 3.2 | 0.00 | 0.00 | 0.00 | 48 | 1016.7 |
| 20260508062155 | 20 | 256 | 0.0 | 3.2 | 0.00 | 0.00 | 0.00 | 47 | 1016.7 |
| 20260508062045 | 20 | 256 | 0.0 | 3.2 | 0.00 | 0.00 | 0.00 | 45 | 1016.7 |
| 20260508061939 | 20 | 256 | 0.0 | 3.2 | 0.00 | 0.00 | 0.00 | 42 | 1016.6 |
| 20260508061832 | 20 | 256 | 0.0 | 3.2 | 0.00 | 0.00 | 0.00 | 44 | 1016.6 |
| 20260508061733 | 20 | 256 | 0.0 | 3.2 | 0.00 | 0.00 | 0.00 | 39 | 1016.7 |
| 20260508061623 | 20 | 256 | 0.0 | 3.2 | 0.00 | 0.00 | 0.00 | 39 | 1016.7 |
| 20260508061513 | 20 | 256 | 0.0 | 3.2 | 0.00 | 0.00 | 0.00 | 43 | 1016.7 |
| 20260508061403 | 20 | 256 | 0.0 | 3.2 | 0.00 | 0.00 | 0.00 | 43 | 1016.7 |
| 20260508061252 | 20 | 256 | 0.0 | 3.2 | 0.00 | 0.00 | 0.00 | 38 | 1016.7 |
| 20260508061142 | 21 | 258 | 0.0 | 3.2 | 0.00 | 0.00 | 0.00 | 47 | 1016.7 |
| 20260508061040 | 21 | 258 | 0.0 | 3.2 | 0.00 | 0.00 | 0.00 | 36 | 1016.6 |
| 20260508060940 | 21 | 258 | 0.0 | 3.2 | 0.00 | 0.00 | 0.00 | 39 | 1016.6 |
| 20260508060836 | 21 | 258 | 0.0 | 3.2 | 0.00 | 0.00 | 0.00 | 38 | 1016.7 |
| 20260508060727 | 21 | 267 | 0.0 | 3.2 | 0.00 | 0.00 | 0.00 | 32 | 1016.7 |
| 20260508060617 | 21 | 321 | 0.0 | 0.0 | 0.00 | 0.00 | 0.00 | 38 | 1016.7 |
| 20260508060507 | 21 | 321 | 0.0 | 0.0 | 0.00 | 0.00 | 0.00 | 40 | 1016.7 |
| 20260508060404 | 21 | 321 | 0.0 | 0.0 | 0.00 | 0.00 | 0.00 | 41 | 1016.7 |
| 20260508060331 | 21 | 321 | 0.0 | 0.0 | 0.00 | 0.00 | 0.00 | 38 | 1016.7 |
| 20260508060300 | 21 | 321 | 0.0 | 0.0 | 0.00 | 0.00 | 0.00 | 38 | 1016.8 |
| 20260508060044 | 21 | 321 | 0.0 | 0.0 | 0.00 | 0.00 | 0.00 | 39 | 1016.7 |
| 20260508055936 | 21 | 321 | 0.0 | 0.0 | 0.00 | 0.00 | 0.00 | 40 | 1016.7 |
| 20260508055826 | 21 | 321 | 0.0 | 0.0 | 0.00 | 0.00 | 0.00 | 37 | 1016.8 |
| 20260508055715 | 21 | 321 | 0.0 | 0.0 | 0.00 | 0.00 | 0.00 | 36 | 1016.8 |
| 20260508055605 | 21 | 321 | 0.0 | 0.0 | 0.00 | 0.00 | 0.00 | 38 | 1016.7 |
| 20260508055455 | 21 | 321 | 0.0 | 0.0 | 0.00 | 0.00 | 0.00 | 39 | 1016.7 |
| 20260508055348 | 21 | 321 | 0.0 | 1.6 | 0.00 | 0.00 | 0.00 | 39 | 1016.7 |
| 20260508055242 | 21 | 321 | 0.0 | 1.6 | 0.00 | 0.00 | 0.00 | 36 | 1016.6 |
| 20260508055139 | 21 | 321 | 0.0 | 1.6 | 0.00 | 0.00 | 0.00 | 35 | 1016.7 |
| 20260508055041 | 21 | 321 | 0.0 | 1.6 | 0.00 | 0.00 | 0.00 | 37 | 1016.7 |
| 20260508054936 | 21 | 321 | 0.0 | 1.6 | 0.00 | 0.00 | 0.00 | 38 | 1016.8 |
| 20260508054833 | 21 | 321 | 0.0 | 1.6 | 0.00 | 0.00 | 0.00 | 35 | 1016.8 |
| 20260508054757 | 21 | 321 | 0.0 | 3.2 | 0.00 | 0.00 | 0.00 | 34 | 1016.7 |
| 20260508054628 | 21 | 321 | 0.0 | 3.2 | 0.00 | 0.00 | 0.00 | 34 | 1016.7 |
| 20260508054527 | 21 | 321 | 0.0 | 3.2 | 0.00 | 0.00 | 0.00 | 33 | 1016.8 |
| 20260508054417 | 21 | 321 | 0.0 | 3.2 | 0.00 | 0.00 | 0.00 | 33 | 1016.9 |
| 20260508054316 | 21 | 321 | 0.0 | 3.2 | 0.00 | 0.00 | 0.00 | 31 | 1016.9 |
| 20260508054211 | 21 | 321 | 0.0 | 3.2 | 0.00 | 0.00 | 0.00 | 32 | 1016.8 |
| 20260508054001 | 21 | 321 | 0.0 | 3.2 | 0.00 | 0.00 | 0.00 | 31 | 1016.8 |
| 20260508053850 | 22 | 321 | 0.0 | 3.2 | 0.00 | 0.00 | 0.00 | 34 | 1016.9 |
| 20260508053744 | 21 | 321 | 0.0 | 1.6 | 0.00 | 0.00 | 0.00 | 35 | 1016.8 |
| 20260508053631 | 21 | 321 | 0.0 | 1.6 | 0.00 | 0.00 | 0.00 | 35 | 1016.9 |
| 20260508053520 | 21 | 321 | 0.0 | 1.6 | 0.00 | 0.00 | 0.00 | 31 | 1016.9 |
| 20260508053419 | 21 | 321 | 0.0 | 1.6 | 0.00 | 0.00 | 0.00 | 31 | 1016.9 |
| 20260508053315 | 21 | 321 | 0.0 | 3.2 | 0.00 | 0.00 | 0.00 | 33 | 1016.8 |
| 20260508053220 | 21 | 321 | 0.0 | 3.2 | 0.00 | 0.00 | 0.00 | 32 | 1016.9 |
| 20260508053113 | 21 | 321 | 0.0 | 3.2 | 0.00 | 0.00 | 0.00 | 34 | 1016.9 |
| 20260508053014 | 21 | 321 | 0.0 | 3.2 | 0.00 | 0.00 | 0.00 | 32 | 1016.9 |
| 20260508052905 | 21 | 321 | 0.0 | 3.2 | 0.00 | 0.00 | 0.00 | 32 | 1017.0 |
| 20260508052753 | 21 | 321 | 0.0 | 3.2 | 0.00 | 0.00 | 0.00 | 34 | 1017.0 |
| 20260508052648 | 21 | 321 | 1.6 | 3.2 | 0.00 | 0.00 | 0.00 | 31 | 1017.0 |
| 20260508052533 | 22 | 71 | 1.6 | 4.8 | 0.00 | 0.00 | 0.00 | 34 | 1016.9 |
| 20260508052423 | 22 | 71 | 1.6 | 6.4 | 0.00 | 0.00 | 0.00 | 32 | 1017.0 |
| 20260508052312 | 22 | 271 | 1.6 | 6.4 | 0.00 | 0.00 | 0.00 | 31 | 1017.0 |
| 20260508052203 | 22 | 271 | 1.6 | 6.4 | 0.00 | 0.00 | 0.00 | 33 | 1016.9 |
| 20260508052054 | 22 | 271 | 1.6 | 6.4 | 0.00 | 0.00 | 0.00 | 31 | 1016.9 |
| 20260508051942 | 22 | 271 | 1.6 | 6.4 | 0.00 | 0.00 | 0.00 | 32 | 1017.0 |
| 20260508051835 | 22 | 271 | 1.6 | 6.4 | 0.00 | 0.00 | 0.00 | 33 | 1017.0 |
| 20260508051725 | 22 | 271 | 1.6 | 6.4 | 0.00 | 0.00 | 0.00 | 29 | 1017.0 |
| 20260508051623 | 22 | 253 | 1.6 | 6.4 | 0.00 | 0.00 | 0.00 | 30 | 1017.0 |
| 20260508051522 | 22 | 254 | 1.6 | 4.8 | 0.00 | 0.00 | 0.00 | 29 | 1017.1 |
| 20260508051410 | 22 | 305 | 1.6 | 4.8 | 0.00 | 0.00 | 0.00 | 29 | 1017.0 |
| 20260508051302 | 22 | 305 | 1.6 | 4.8 | 0.00 | 0.00 | 0.00 | 29 | 1017.1 |
| 20260508051152 | 23 | 236 | 1.6 | 4.8 | 0.00 | 0.00 | 0.00 | 32 | 1017.1 |
| 20260508051044 | 23 | 195 | 1.6 | 4.8 | 0.00 | 0.00 | 0.00 | 29 | 1017.1 |
| 20260508050931 | 22 | 195 | 1.6 | 4.8 | 0.00 | 0.00 | 0.00 | 29 | 1017.0 |
| 20260508050829 | 22 | 282 | 1.6 | 4.8 | 0.00 | 0.00 | 0.00 | 28 | 1017.1 |
| 20260508050711 | 22 | 257 | 1.6 | 4.8 | 0.00 | 0.00 | 0.00 | 31 | 1017.2 |
| 20260508050601 | 22 | 273 | 1.6 | 4.8 | 0.00 | 0.00 | 0.00 | 31 | 1017.2 |
| 20260508050451 | 22 | 273 | 1.6 | 4.8 | 0.00 | 0.00 | 0.00 | 29 | 1017.1 |
| 20260508050341 | 22 | 263 | 1.6 | 4.8 | 0.00 | 0.00 | 0.00 | 28 | 1017.1 |
| 20260508050231 | 22 | 263 | 1.6 | 4.8 | 0.00 | 0.00 | 0.00 | 27 | 1017.2 |
| 20260508050121 | 22 | 263 | 3.2 | 9.7 | 0.00 | 0.00 | 0.00 | 27 | 1017.2 |
| 20260508050018 | 22 | 263 | 3.2 | 9.7 | 0.00 | 0.00 | 0.00 | 30 | 1017.2 |
| 20260508045918 | 22 | 263 | 3.2 | 9.7 | 0.00 | 0.00 | 0.00 | 28 | 1017.3 |
| 20260508045809 | 22 | 263 | 3.2 | 9.7 | 0.00 | 0.00 | 0.00 | 26 | 1017.3 |
| 20260508045659 | 22 | 220 | 3.2 | 9.7 | 0.00 | 0.00 | 0.00 | 26 | 1017.2 |
| 20260508045549 | 22 | 283 | 3.2 | 9.7 | 0.00 | 0.00 | 0.00 | 26 | 1017.3 |
| 20260508045441 | 23 | 271 | 3.2 | 9.7 | 0.00 | 0.00 | 0.00 | 28 | 1017.3 |
| 20260508045329 | 23 | 264 | 3.2 | 9.7 | 0.00 | 0.00 | 0.00 | 27 | 1017.3 |
| 20260508045219 | 23 | 272 | 3.2 | 9.7 | 0.00 | 0.00 | 0.00 | 28 | 1017.3 |
| 20260508045109 | 23 | 240 | 3.2 | 9.7 | 0.00 | 0.00 | 0.00 | 29 | 1017.2 |
| 20260508044959 | 23 | 298 | 3.2 | 9.7 | 0.00 | 0.00 | 0.00 | 26 | 1017.2 |
| 20260508044849 | 23 | 263 | 1.6 | 6.4 | 0.00 | 0.00 | 0.00 | 26 | 1017.3 |
| 20260508044804 | 23 | 194 | 1.6 | 6.4 | 0.00 | 0.00 | 0.00 | 26 | 1017.2 |
| 20260508044740 | 23 | 252 | 1.6 | 6.4 | 0.00 | 0.00 | 0.00 | 28 | 1017.2 |
| 20260508044520 | 23 | 261 | 1.6 | 6.4 | 0.00 | 0.00 | 0.00 | 30 | 1017.2 |
| 20260508044418 | 23 | 261 | 1.6 | 6.4 | 0.00 | 0.00 | 0.00 | 30 | 1017.2 |
| 20260508044317 | 23 | 300 | 1.6 | 4.8 | 0.00 | 0.00 | 0.00 | 30 | 1017.1 |
| 20260508044207 | 22 | 287 | 1.6 | 11.3 | 0.00 | 0.00 | 0.00 | 28 | 1017.1 |
| 20260508044058 | 22 | 295 | 3.2 | 11.3 | 0.00 | 0.00 | 0.00 | 31 | 1017.1 |
| 20260508043947 | 22 | 323 | 3.2 | 11.3 | 0.00 | 0.00 | 0.00 | 29 | 1017.1 |
| 20260508043841 | 22 | 323 | 3.2 | 11.3 | 0.00 | 0.00 | 0.00 | 28 | 1017.1 |
| 20260508043735 | 22 | 323 | 3.2 | 11.3 | 0.00 | 0.00 | 0.00 | 30 | 1017.0 |
| 20260508043623 | 22 | 315 | 3.2 | 11.3 | 0.00 | 0.00 | 0.00 | 27 | 1017.0 |
| 20260508043507 | 23 | 317 | 3.2 | 11.3 | 0.00 | 0.00 | 0.00 | 29 | 1016.9 |
| 20260508043357 | 23 | 269 | 3.2 | 11.3 | 0.00 | 0.00 | 0.00 | 26 | 1017.0 |
| 20260508043247 | 23 | 298 | 3.2 | 9.7 | 0.00 | 0.00 | 0.00 | 29 | 1016.9 |
| 20260508043137 | 23 | 259 | 3.2 | 9.7 | 0.00 | 0.00 | 0.00 | 26 | 1016.9 |
| 20260508043028 | 23 | 255 | 3.2 | 8.0 | 0.00 | 0.00 | 0.00 | 27 | 1017.1 |
| 20260508042918 | 23 | 283 | 3.2 | 8.0 | 0.00 | 0.00 | 0.00 | 25 | 1016.9 |
| 20260508042816 | 23 | 209 | 3.2 | 8.0 | 0.00 | 0.00 | 0.00 | 28 | 1016.9 |
| 20260508042717 | 23 | 268 | 3.2 | 9.7 | 0.00 | 0.00 | 0.00 | 26 | 1017.0 |
| 20260508042607 | 23 | 288 | 3.2 | 9.7 | 0.00 | 0.00 | 0.00 | 27 | 1017.0 |
| 20260508042455 | 23 | 298 | 3.2 | 9.7 | 0.00 | 0.00 | 0.00 | 27 | 1017.1 |
| 20260508042347 | 23 | 257 | 3.2 | 9.7 | 0.00 | 0.00 | 0.00 | 30 | 1017.1 |
| 20260508042235 | 23 | 201 | 3.2 | 9.7 | 0.00 | 0.00 | 0.00 | 29 | 1017.0 |
| 20260508042125 | 23 | 269 | 3.2 | 9.7 | 0.00 | 0.00 | 0.00 | 26 | 1017.1 |
| 20260508042015 | 23 | 247 | 3.2 | 9.7 | 0.00 | 0.00 | 0.00 | 27 | 1017.2 |
| 20260508041906 | 23 | 280 | 3.2 | 9.7 | 0.00 | 0.00 | 0.00 | 29 | 1017.2 |
| 20260508041803 | 23 | 274 | 3.2 | 9.7 | 0.00 | 0.00 | 0.00 | 27 | 1017.2 |
| 20260508041658 | 23 | 339 | 1.6 | 6.4 | 0.00 | 0.00 | 0.00 | 27 | 1017.0 |
| 20260508041450 | 23 | 306 | 1.6 | 6.4 | 0.00 | 0.00 | 0.00 | 25 | 1017.1 |
| 20260508041340 | 23 | 255 | 1.6 | 6.4 | 0.00 | 0.00 | 0.00 | 30 | 1017.1 |
| 20260508041240 | 23 | 279 | 1.6 | 6.4 | 0.00 | 0.00 | 0.00 | 25 | 1017.1 |
| 20260508041139 | 23 | 297 | 1.6 | 6.4 | 0.00 | 0.00 | 0.00 | 29 | 1017.1 |
| 20260508041028 | 23 | 301 | 1.6 | 6.4 | 0.00 | 0.00 | 0.00 | 27 | 1017.1 |
| 20260508040919 | 22 | 309 | 1.6 | 6.4 | 0.00 | 0.00 | 0.00 | 28 | 1017.1 |
| 20260508040809 | 22 | 309 | 1.6 | 6.4 | 0.00 | 0.00 | 0.00 | 33 | 1017.0 |
| 20260508040700 | 22 | 335 | 1.6 | 6.4 | 0.00 | 0.00 | 0.00 | 25 | 1017.1 |
| 20260508040554 | 22 | 327 | 1.6 | 6.4 | 0.00 | 0.00 | 0.00 | 28 | 1017.1 |
| 20260508040444 | 22 | 327 | 1.6 | 6.4 | 0.00 | 0.00 | 0.00 | 25 | 1017.2 |
| 20260508040336 | 23 | 337 | 1.6 | 6.4 | 0.00 | 0.00 | 0.00 | 28 | 1017.2 |
| 20260508040231 | 23 | 315 | 1.6 | 4.8 | 0.00 | 0.00 | 0.00 | 29 | 1017.1 |
| 20260508040117 | 22 | 13 | 1.6 | 4.8 | 0.00 | 0.00 | 0.00 | 30 | 1017.2 |
| 20260508040009 | 22 | 43 | 1.6 | 6.4 | 0.00 | 0.00 | 0.00 | 25 | 1017.2 |
| 20260508035907 | 22 | 281 | 1.6 | 6.4 | 0.00 | 0.00 | 0.00 | 27 | 1017.2 |
| 20260508035804 | 22 | 281 | 1.6 | 6.4 | 0.00 | 0.00 | 0.00 | 26 | 1017.1 |
| 20260508035708 | 22 | 317 | 1.6 | 6.4 | 0.00 | 0.00 | 0.00 | 27 | 1017.1 |
| 20260508035605 | 22 | 340 | 1.6 | 6.4 | 0.00 | 0.00 | 0.00 | 28 | 1017.2 |
| 20260508035441 | 22 | 74 | 1.6 | 6.4 | 0.00 | 0.00 | 0.00 | 30 | 1017.3 |
| 20260508035331 | 22 | 69 | 1.6 | 6.4 | 0.00 | 0.00 | 0.00 | 25 | 1017.3 |
| 20260508035225 | 22 | 300 | 1.6 | 6.4 | 0.00 | 0.00 | 0.00 | 23 | 1017.3 |
| 20260508035114 | 22 | 314 | 3.2 | 6.4 | 0.00 | 0.00 | 0.00 | 29 | 1017.2 |
| 20260508035005 | 22 | 340 | 3.2 | 9.7 | 0.00 | 0.00 | 0.00 | 25 | 1017.3 |
| 20260508034856 | 23 | 5 | 3.2 | 9.7 | 0.00 | 0.00 | 0.00 | 27 | 1017.3 |
| 20260508034754 | 23 | 248 | 3.2 | 9.7 | 0.00 | 0.00 | 0.00 | 25 | 1017.4 |
| 20260508034647 | 23 | 248 | 3.2 | 9.7 | 0.00 | 0.00 | 0.00 | 30 | 1017.3 |